GEFSNGP_prec_meanprecacc_012.txt.gz
Total_Precipitation_Accumulation
0.00 0.00 0.00 0.00 0.00 0.00 0.00 0.00 0.00 0.00 0.00 0.00 0.00 0.00 0.00 0.00 0.00 0.00 0.00 0.00 0.00 0.00 0.01 0.01 0.01 0.01 0.01 0.02 0.02 0.03 0.03 0.03 0.03 0.03 0.03 0.03 0.02 0.02 0.02 0.02 0.03 0.04 0.03 0.02
0.00 0.00 0.00 0.00 0.00 0.00 0.00 0.00 0.00 0.00 0.00 0.00 0.00 0.01 0.02 0.02 0.01 0.02 0.02 0.03 0.04 0.04 0.05 0.04 0.04 0.04 0.03 0.03 0.03 0.03 0.03 0.03 0.02 0.02 0.02 0.01 0.01 0.01 0.01 0.02 0.03 0.05 0.05 0.03
0.00 0.00 0.00 0.00 0.00 0.00 0.00 0.00 0.00 0.01 0.01 0.02 0.03 0.05 0.08 0.11 0.12 0.13 0.12 0.10 0.07 0.05 0.03 0.02 0.01 0.01 0.00 0.00 0.00 0.01 0.01 0.01 0.01 0.01 0.01 0.01 0.01 0.01 0.01 0.02 0.04 0.07 0.08 0.06
0.00 0.00 0.00 0.00 0.00 0.00 0.00 0.00 0.01 0.03 0.05 0.09 0.12 0.17 0.23 0.27 0.21 0.11 0.06 0.03 0.01 0.00 0.00 0.00 0.00 0.00 0.00 0.00 0.00 0.00 0.00 0.01 0.01 0.02 0.01 0.02 0.03 0.03 0.04 0.05 0.05 0.08 0.11 0.10
0.00 0.00 0.00 0.00 0.00 0.01 0.02 0.02 0.04 0.10 0.15 0.18 0.18 0.13 0.09 0.06 0.03 0.01 0.01 0.00 0.00 0.00 0.00 0.00 0.00 0.00 0.00 0.00 0.00 0.00 0.01 0.03 0.05 0.05 0.05 0.06 0.07 0.08 0.10 0.10 0.10 0.10 0.12 0.14
0.00 0.00 0.00 0.00 0.02 0.06 0.07 0.12 0.13 0.12 0.09 0.05 0.02 0.01 0.00 0.00 0.00 0.00 0.00 0.00 0.00 0.00 0.00 0.00 0.00 0.00 0.00 0.00 0.00 0.00 0.01 0.03 0.05 0.08 0.09 0.09 0.10 0.11 0.13 0.13 0.14 0.15 0.14 0.15
0.00 0.00 0.00 0.00 0.01 0.03 0.05 0.07 0.03 0.01 0.01 0.00 0.00 0.00 0.00 0.00 0.00 0.00 0.00 0.00 0.00 0.00 0.00 0.00 0.00 0.00 0.00 0.00 0.00 0.00 0.00 0.01 0.02 0.05 0.10 0.11 0.12 0.14 0.15 0.17 0.18 0.19 0.18 0.18
0.00 0.01 0.01 0.00 0.00 0.00 0.00 0.00 0.00 0.00 0.00 0.00 0.00 0.00 0.00 0.00 0.00 0.00 0.00 0.00 0.00 0.00 0.00 0.00 0.00 0.00 0.00 0.00 0.00 0.00 0.01 0.02 0.02 0.05 0.11 0.13 0.14 0.16 0.18 0.19 0.23 0.26 0.29 0.29
0.00 0.01 0.00 0.00 0.00 0.00 0.00 0.00 0.00 0.00 0.00 0.00 0.00 0.00 0.00 0.00 0.00 0.00 0.00 0.00 0.00 0.00 0.00 0.00 0.00 0.01 0.01 0.01 0.01 0.01 0.01 0.02 0.05 0.06 0.15 0.25 0.24 0.20 0.20 0.21 0.24 0.28 0.33 0.37
0.00 0.00 0.00 0.00 0.00 0.00 0.00 0.00 0.00 0.00 0.00 0.00 0.00 0.00 0.00 0.00 0.00 0.00 0.00 0.00 0.00 0.00 0.00 0.00 0.01 0.01 0.01 0.02 0.02 0.03 0.03 0.03 0.05 0.08 0.20 0.39 0.45 0.36 0.29 0.26 0.27 0.30 0.31 0.33
0.00 0.00 0.00 0.00 0.00 0.00 0.00 0.00 0.00 0.00 0.00 0.00 0.00 0.00 0.00 0.00 0.00 0.00 0.00 0.00 0.00 0.00 0.01 0.01 0.01 0.02 0.03 0.04 0.05 0.05 0.04 0.04 0.04 0.08 0.18 0.37 0.50 0.49 0.41 0.37 0.36 0.36 0.34 0.30
0.00 0.00 0.00 0.00 0.00 0.00 0.00 0.00 0.00 0.00 0.00 0.00 0.00 0.00 0.00 0.00 0.00 0.00 0.00 0.00 0.00 0.01 0.02 0.02 0.03 0.04 0.05 0.06 0.07 0.07 0.06 0.05 0.05 0.07 0.14 0.33 0.53 0.59 0.49 0.41 0.40 0.39 0.34 0.29
0.00 0.00 0.00 0.00 0.00 0.00 0.00 0.00 0.00 0.00 0.00 0.00 0.00 0.00 0.00 0.00 0.00 0.00 0.00 0.01 0.02 0.03 0.04 0.05 0.07 0.06 0.06 0.08 0.10 0.09 0.08 0.07 0.06 0.06 0.10 0.22 0.45 0.66 0.67 0.50 0.43 0.38 0.29 0.20
0.00 0.00 0.00 0.00 0.00 0.00 0.00 0.00 0.00 0.00 0.00 0.00 0.00 0.00 0.00 0.00 0.00 0.01 0.01 0.03 0.06 0.08 0.09 0.10 0.09 0.07 0.08 0.10 0.10 0.10 0.09 0.07 0.06 0.06 0.07 0.14 0.35 0.60 0.77 0.70 0.59 0.46 0.28 0.14
0.00 0.00 0.00 0.00 0.00 0.00 0.00 0.00 0.00 0.00 0.00 0.00 0.00 0.00 0.00 0.01 0.01 0.02 0.03 0.08 0.14 0.16 0.15 0.14 0.12 0.09 0.09 0.10 0.11 0.10 0.09 0.07 0.05 0.05 0.06 0.10 0.27 0.50 0.69 0.75 0.67 0.59 0.38 0.16
0.00 0.00 0.00 0.00 0.00 0.00 0.00 0.00 0.00 0.00 0.00 0.00 0.00 0.00 0.01 0.02 0.04 0.05 0.08 0.16 0.27 0.29 0.24 0.19 0.16 0.12 0.11 0.12 0.11 0.09 0.07 0.06 0.05 0.05 0.05 0.08 0.19 0.39 0.60 0.72 0.66 0.62 0.47 0.19
0.00 0.00 0.00 0.00 0.00 0.00 0.00 0.00 0.00 0.00 0.00 0.00 0.01 0.02 0.04 0.07 0.09 0.12 0.18 0.24 0.31 0.31 0.27 0.25 0.21 0.16 0.14 0.14 0.13 0.10 0.07 0.05 0.04 0.04 0.06 0.09 0.15 0.32 0.52 0.67 0.62 0.55 0.45 0.21
0.00 0.00 0.00 0.00 0.00 0.00 0.00 0.00 0.00 0.00 0.01 0.02 0.05 0.05 0.07 0.12 0.19 0.28 0.35 0.39 0.39 0.32 0.27 0.27 0.23 0.16 0.13 0.11 0.09 0.07 0.06 0.04 0.04 0.05 0.07 0.10 0.16 0.30 0.48 0.61 0.55 0.49 0.39 0.20
0.00 0.00 0.00 0.00 0.00 0.00 0.00 0.00 0.00 0.01 0.02 0.06 0.07 0.06 0.08 0.13 0.23 0.35 0.43 0.52 0.58 0.48 0.33 0.24 0.19 0.11 0.08 0.06 0.06 0.04 0.04 0.03 0.03 0.04 0.06 0.08 0.17 0.31 0.45 0.51 0.45 0.38 0.27 0.12
0.00 0.00 0.00 0.00 0.00 0.00 0.00 0.00 0.00 0.01 0.04 0.08 0.09 0.06 0.08 0.13 0.24 0.39 0.49 0.57 0.64 0.58 0.43 0.29 0.16 0.08 0.04 0.03 0.02 0.03 0.03 0.03 0.03 0.05 0.07 0.11 0.21 0.33 0.39 0.38 0.31 0.22 0.15 0.08
0.00 0.00 0.00 0.00 0.00 0.00 0.00 0.00 0.00 0.02 0.06 0.08 0.07 0.06 0.09 0.14 0.23 0.39 0.61 0.75 0.69 0.59 0.46 0.32 0.19 0.09 0.04 0.02 0.01 0.01 0.02 0.03 0.05 0.07 0.10 0.14 0.20 0.26 0.27 0.23 0.16 0.10 0.07 0.04
0.00 0.00 0.00 0.00 0.00 0.00 0.00 0.00 0.00 0.02 0.05 0.06 0.05 0.06 0.10 0.17 0.25 0.34 0.49 0.73 0.81 0.73 0.53 0.34 0.22 0.11 0.05 0.02 0.01 0.01 0.01 0.03 0.05 0.09 0.11 0.12 0.14 0.16 0.15 0.11 0.07 0.05 0.03 0.02
0.00 0.00 0.00 0.00 0.00 0.00 0.00 0.00 0.00 0.01 0.02 0.03 0.04 0.06 0.11 0.18 0.29 0.48 0.59 0.59 0.68 0.75 0.56 0.36 0.26 0.16 0.07 0.03 0.01 0.01 0.02 0.05 0.11 0.12 0.09 0.08 0.08 0.08 0.08 0.05 0.03 0.02 0.01 0.01
0.00 0.00 0.00 0.00 0.00 0.00 0.00 0.00 0.00 0.00 0.00 0.01 0.02 0.03 0.06 0.14 0.22 0.34 0.50 0.57 0.58 0.63 0.47 0.31 0.23 0.16 0.10 0.05 0.04 0.05 0.11 0.18 0.17 0.11 0.05 0.04 0.04 0.04 0.04 0.03 0.01 0.01 0.01 0.01
0.00 0.00 0.00 0.00 0.00 0.00 0.00 0.00 0.00 0.00 0.00 0.00 0.01 0.01 0.02 0.07 0.17 0.27 0.37 0.44 0.55 0.61 0.49 0.35 0.25 0.20 0.15 0.12 0.12 0.18 0.25 0.22 0.14 0.06 0.03 0.02 0.02 0.02 0.01 0.01 0.00 0.00 0.00 0.00
0.00 0.00 0.00 0.00 0.00 0.00 0.00 0.00 0.00 0.00 0.00 0.00 0.01 0.01 0.02 0.02 0.06 0.13 0.22 0.28 0.39 0.51 0.46 0.32 0.20 0.17 0.16 0.17 0.18 0.19 0.15 0.10 0.06 0.03 0.02 0.02 0.02 0.02 0.01 0.01 0.00 0.00 0.00 0.00
0.00 0.00 0.00 0.00 0.00 0.00 0.00 0.00 0.00 0.00 0.00 0.00 0.01 0.02 0.03 0.03 0.04 0.07 0.11 0.16 0.23 0.28 0.27 0.20 0.12 0.10 0.10 0.10 0.09 0.07 0.06 0.05 0.04 0.03 0.03 0.03 0.03 0.02 0.02 0.01 0.00 0.00 0.00 0.00

GEFSNGP_prec_meanprecacc_018.txt.gz
Total_Precipitation_Accumulation
0.00 0.00 0.00 0.00 0.00 0.00 0.00 0.00 0.02 0.02 0.03 0.01 0.00 0.00 0.00 0.00 0.00 0.00 0.00 0.00 0.00 0.00 0.01 0.01 0.01 0.01 0.02 0.02 0.02 0.03 0.03 0.04 0.04 0.04 0.05 0.05 0.05 0.04 0.04 0.04 0.05 0.08 0.10 0.10
0.00 0.00 0.00 0.00 0.00 0.00 0.00 0.00 0.00 0.00 0.00 0.00 0.00 0.01 0.02 0.02 0.01 0.02 0.02 0.03 0.04 0.04 0.05 0.04 0.04 0.04 0.03 0.03 0.03 0.04 0.04 0.03 0.03 0.03 0.03 0.03 0.03 0.03 0.03 0.03 0.05 0.09 0.12 0.12
0.00 0.00 0.01 0.04 0.01 0.00 0.00 0.00 0.00 0.01 0.02 0.02 0.03 0.05 0.08 0.11 0.12 0.13 0.12 0.10 0.07 0.05 0.03 0.02 0.01 0.01 0.00 0.00 0.00 0.01 0.01 0.02 0.02 0.02 0.02 0.02 0.02 0.02 0.03 0.03 0.05 0.09 0.12 0.14
0.00 0.00 0.03 0.03 0.00 0.00 0.00 0.00 0.01 0.03 0.05 0.09 0.12 0.17 0.23 0.27 0.21 0.11 0.06 0.03 0.01 0.00 0.00 0.00 0.00 0.00 0.00 0.00 0.00 0.00 0.00 0.01 0.01 0.02 0.02 0.03 0.04 0.05 0.06 0.07 0.07 0.10 0.14 0.16
0.00 0.00 0.02 0.00 0.00 0.01 0.02 0.02 0.04 0.10 0.15 0.18 0.18 0.13 0.09 0.06 0.03 0.01 0.01 0.00 0.00 0.00 0.00 0.00 0.00 0.00 0.00 0.00 0.00 0.00 0.01 0.03 0.05 0.05 0.06 0.07 0.08 0.10 0.12 0.13 0.12 0.12 0.14 0.17
0.00 0.00 0.01 0.01 0.02 0.06 0.07 0.12 0.13 0.12 0.09 0.05 0.02 0.01 0.00 0.00 0.00 0.00 0.00 0.00 0.00 0.00 0.00 0.00 0.00 0.00 0.00 0.00 0.00 0.00 0.01 0.03 0.05 0.08 0.10 0.10 0.12 0.14 0.16 0.17 0.17 0.16 0.15 0.17
0.00 0.00 0.00 0.00 0.01 0.03 0.05 0.07 0.03 0.01 0.01 0.00 0.00 0.00 0.00 0.00 0.00 0.00 0.00 0.00 0.00 0.00 0.00 0.00 0.00 0.00 0.01 0.01 0.01 0.01 0.02 0.02 0.03 0.07 0.12 0.14 0.16 0.19 0.20 0.21 0.23 0.24 0.22 0.21
0.00 0.01 0.01 0.00 0.00 0.00 0.00 0.00 0.00 0.00 0.00 0.00 0.00 0.00 0.00 0.00 0.00 0.00 0.00 0.00 0.00 0.00 0.00 0.00 0.00 0.01 0.03 0.03 0.03 0.03 0.04 0.05 0.06 0.10 0.15 0.15 0.19 0.22 0.25 0.27 0.31 0.32 0.34 0.33
0.00 0.01 0.00 0.00 0.00 0.00 0.00 0.00 0.00 0.00 0.00 0.00 0.00 0.00 0.00 0.00 0.00 0.00 0.00 0.00 0.00 0.00 0.00 0.00 0.01 0.03 0.04 0.04 0.04 0.05 0.06 0.08 0.10 0.13 0.22 0.32 0.31 0.27 0.28 0.30 0.31 0.34 0.39 0.43
0.00 0.00 0.00 0.00 0.00 0.00 0.00 0.00 0.00 0.00 0.00 0.00 0.00 0.00 0.00 0.00 0.00 0.00 0.00 0.00 0.00 0.00 0.01 0.02 0.03 0.04 0.05 0.06 0.08 0.09 0.10 0.10 0.12 0.16 0.27 0.48 0.54 0.44 0.36 0.33 0.34 0.38 0.39 0.41
0.00 0.00 0.00 0.00 0.00 0.00 0.00 0.00 0.00 0.00 0.00 0.00 0.00 0.00 0.00 0.00 0.00 0.00 0.00 0.00 0.01 0.02 0.03 0.03 0.04 0.05 0.06 0.09 0.13 0.14 0.14 0.13 0.13 0.17 0.27 0.46 0.58 0.56 0.48 0.44 0.42 0.42 0.42 0.41
0.00 0.00 0.00 0.00 0.00 0.00 0.00 0.00 0.00 0.00 0.00 0.00 0.00 0.00 0.00 0.00 0.00 0.00 0.01 0.01 0.02 0.04 0.06 0.06 0.08 0.09 0.09 0.12 0.17 0.20 0.19 0.18 0.18 0.19 0.25 0.42 0.60 0.65 0.52 0.43 0.42 0.41 0.36 0.34
0.00 0.00 0.00 0.00 0.00 0.00 0.00 0.00 0.00 0.00 0.00 0.00 0.00 0.00 0.00 0.00 0.01 0.01 0.02 0.05 0.08 0.11 0.14 0.15 0.16 0.14 0.12 0.16 0.21 0.24 0.24 0.22 0.21 0.20 0.21 0.31 0.53 0.74 0.75 0.55 0.44 0.38 0.29 0.20
0.00 0.00 0.00 0.00 0.00 0.00 0.00 0.00 0.00 0.00 0.00 0.00 0.00 0.00 0.00 0.01 0.02 0.03 0.07 0.13 0.19 0.23 0.23 0.23 0.21 0.16 0.15 0.20 0.23 0.24 0.23 0.21 0.19 0.18 0.18 0.25 0.44 0.69 0.86 0.80 0.65 0.48 0.29 0.14
0.00 0.00 0.00 0.00 0.00 0.00 0.00 0.00 0.00 0.00 0.00 0.00 0.00 0.00 0.01 0.02 0.04 0.08 0.14 0.25 0.35 0.35 0.30 0.27 0.22 0.17 0.17 0.21 0.22 0.21 0.21 0.19 0.17 0.17 0.17 0.20 0.36 0.59 0.78 0.85 0.78 0.69 0.44 0.17
0.00 0.00 0.00 0.00 0.00 0.00 0.00 0.00 0.00 0.00 0.00 0.00 0.00 0.01 0.01 0.04 0.08 0.12 0.21 0.36 0.52 0.53 0.42 0.32 0.26 0.21 0.20 0.21 0.20 0.19 0.17 0.12 0.11 0.13 0.14 0.17 0.27 0.48 0.70 0.83 0.78 0.73 0.56 0.23
0.00 0.00 0.00 0.00 0.00 0.00 0.00 0.00 0.00 0.00 0.00 0.00 0.01 0.02 0.04 0.09 0.15 0.22 0.34 0.44 0.50 0.48 0.41 0.37 0.31 0.24 0.21 0.20 0.19 0.18 0.15 0.11 0.06 0.08 0.13 0.18 0.25 0.42 0.63 0.78 0.72 0.65 0.54 0.25
0.00 0.00 0.00 0.00 0.00 0.00 0.00 0.00 0.00 0.00 0.01 0.02 0.05 0.05 0.08 0.16 0.28 0.44 0.56 0.60 0.54 0.41 0.35 0.35 0.30 0.22 0.19 0.16 0.13 0.13 0.12 0.12 0.11 0.12 0.17 0.20 0.26 0.41 0.59 0.70 0.63 0.57 0.46 0.22
0.00 0.00 0.00 0.00 0.00 0.00 0.00 0.00 0.00 0.01 0.02 0.06 0.08 0.07 0.09 0.17 0.31 0.50 0.61 0.72 0.74 0.58 0.39 0.29 0.22 0.18 0.14 0.10 0.08 0.09 0.09 0.09 0.11 0.14 0.17 0.17 0.27 0.42 0.55 0.59 0.52 0.45 0.33 0.15
0.00 0.00 0.00 0.00 0.00 0.00 0.00 0.00 0.00 0.01 0.04 0.09 0.09 0.07 0.09 0.15 0.31 0.51 0.63 0.73 0.77 0.68 0.49 0.32 0.20 0.14 0.08 0.05 0.05 0.07 0.09 0.10 0.12 0.15 0.18 0.22 0.32 0.44 0.48 0.47 0.38 0.28 0.18 0.09
0.00 0.00 0.00 0.00 0.00 0.00 0.00 0.00 0.00 0.02 0.06 0.09 0.07 0.06 0.09 0.16 0.27 0.48 0.76 0.92 0.80 0.65 0.50 0.35 0.23 0.12 0.06 0.03 0.04 0.07 0.09 0.11 0.15 0.19 0.22 0.26 0.33 0.39 0.38 0.32 0.22 0.15 0.09 0.05
0.00 0.00 0.00 0.00 0.00 0.00 0.00 0.00 0.00 0.02 0.05 0.06 0.05 0.06 0.11 0.18 0.28 0.40 0.58 0.86 0.92 0.82 0.58 0.38 0.25 0.12 0.06 0.04 0.04 0.06 0.08 0.10 0.14 0.19 0.20 0.21 0.25 0.26 0.24 0.17 0.10 0.07 0.04 0.03
0.00 0.00 0.00 0.00 0.00 0.00 0.00 0.00 0.00 0.01 0.02 0.04 0.04 0.06 0.11 0.19 0.32 0.54 0.66 0.66 0.75 0.84 0.62 0.39 0.28 0.18 0.09 0.05 0.06 0.07 0.07 0.11 0.18 0.19 0.16 0.16 0.15 0.15 0.13 0.09 0.05 0.03 0.03 0.03
0.00 0.00 0.00 0.00 0.00 0.00 0.00 0.00 0.00 0.00 0.00 0.01 0.02 0.03 0.07 0.15 0.23 0.36 0.53 0.61 0.64 0.69 0.52 0.35 0.26 0.19 0.13 0.09 0.09 0.11 0.17 0.24 0.24 0.18 0.13 0.11 0.11 0.10 0.08 0.06 0.03 0.03 0.04 0.04
0.00 0.00 0.00 0.00 0.00 0.00 0.00 0.00 0.00 0.00 0.00 0.00 0.01 0.01 0.02 0.07 0.18 0.28 0.38 0.45 0.58 0.64 0.52 0.38 0.28 0.24 0.20 0.17 0.17 0.24 0.31 0.27 0.19 0.14 0.11 0.09 0.09 0.09 0.06 0.03 0.03 0.04 0.05 0.04
0.00 0.00 0.00 0.00 0.00 0.00 0.00 0.00 0.00 0.00 0.00 0.00 0.01 0.01 0.02 0.03 0.06 0.13 0.22 0.29 0.40 0.53 0.47 0.33 0.21 0.19 0.20 0.21 0.23 0.25 0.24 0.19 0.14 0.12 0.12 0.11 0.09 0.07 0.05 0.04 0.03 0.03 0.03 0.02
0.00 0.00 0.00 0.00 0.00 0.00 0.00 0.00 0.00 0.00 0.00 0.00 0.01 0.02 0.03 0.03 0.04 0.07 0.11 0.17 0.24 0.28 0.27 0.20 0.12 0.11 0.11 0.12 0.12 0.12 0.12 0.13 0.12 0.12 0.12 0.12 0.10 0.08 0.05 0.02 0.02 0.02 0.01 0.01

GEFSNGP_prec_meanprecacc_024.txt.gz
Total_Precipitation_Accumulation
0.00 0.01 0.01 0.03 0.05 0.03 0.01 0.00 0.02 0.02 0.03 0.01 0.00 0.00 0.00 0.00 0.00 0.00 0.00 0.00 0.00 0.00 0.01 0.01 0.01 0.01 0.02 0.02 0.02 0.03 0.04 0.04 0.04 0.04 0.05 0.05 0.05 0.04 0.04 0.04 0.05 0.08 0.10 0.10
0.00 0.01 0.01 0.03 0.06 0.02 0.00 0.00 0.00 0.00 0.00 0.00 0.00 0.01 0.02 0.02 0.01 0.02 0.02 0.03 0.04 0.04 0.05 0.04 0.04 0.04 0.03 0.03 0.03 0.04 0.04 0.04 0.03 0.03 0.03 0.04 0.04 0.03 0.03 0.03 0.06 0.09 0.12 0.12
0.00 0.00 0.01 0.05 0.03 0.01 0.00 0.00 0.00 0.01 0.02 0.02 0.03 0.05 0.08 0.11 0.12 0.13 0.12 0.10 0.07 0.05 0.03 0.02 0.01 0.01 0.00 0.00 0.00 0.01 0.01 0.02 0.02 0.02 0.02 0.02 0.02 0.03 0.03 0.04 0.06 0.10 0.13 0.14
0.00 0.00 0.03 0.04 0.00 0.00 0.00 0.00 0.01 0.03 0.05 0.09 0.12 0.17 0.23 0.27 0.21 0.11 0.06 0.03 0.01 0.00 0.00 0.00 0.00 0.00 0.00 0.00 0.00 0.00 0.00 0.01 0.01 0.02 0.03 0.04 0.05 0.05 0.07 0.07 0.08 0.11 0.14 0.17
0.00 0.00 0.02 0.01 0.00 0.01 0.02 0.02 0.04 0.10 0.15 0.18 0.18 0.13 0.09 0.06 0.03 0.01 0.01 0.00 0.00 0.00 0.00 0.00 0.00 0.00 0.00 0.00 0.00 0.01 0.02 0.03 0.05 0.06 0.06 0.07 0.09 0.11 0.13 0.13 0.13 0.13 0.14 0.18
0.00 0.00 0.01 0.01 0.02 0.06 0.07 0.12 0.13 0.12 0.09 0.05 0.02 0.01 0.00 0.00 0.00 0.00 0.00 0.00 0.00 0.00 0.00 0.00 0.00 0.00 0.00 0.00 0.01 0.01 0.02 0.04 0.06 0.09 0.11 0.11 0.12 0.14 0.16 0.17 0.18 0.17 0.15 0.18
0.00 0.00 0.00 0.00 0.01 0.03 0.05 0.07 0.03 0.01 0.01 0.00 0.00 0.00 0.00 0.00 0.00 0.00 0.00 0.00 0.00 0.00 0.00 0.00 0.00 0.01 0.02 0.03 0.03 0.03 0.03 0.04 0.05 0.09 0.14 0.15 0.17 0.19 0.21 0.21 0.23 0.24 0.22 0.21
0.00 0.01 0.01 0.00 0.00 0.00 0.00 0.00 0.00 0.00 0.00 0.00 0.00 0.00 0.00 0.00 0.00 0.00 0.00 0.00 0.00 0.00 0.00 0.00 0.01 0.03 0.05 0.06 0.05 0.06 0.07 0.08 0.08 0.12 0.17 0.17 0.21 0.24 0.27 0.29 0.32 0.33 0.35 0.33
0.00 0.01 0.00 0.00 0.00 0.00 0.00 0.00 0.00 0.00 0.00 0.00 0.00 0.00 0.00 0.00 0.00 0.00 0.00 0.00 0.00 0.00 0.00 0.01 0.02 0.05 0.08 0.08 0.08 0.09 0.10 0.10 0.12 0.15 0.24 0.34 0.34 0.29 0.30 0.32 0.33 0.35 0.40 0.44
0.00 0.00 0.00 0.00 0.00 0.00 0.00 0.00 0.00 0.00 0.00 0.00 0.00 0.00 0.00 0.00 0.00 0.00 0.00 0.00 0.00 0.01 0.02 0.03 0.04 0.05 0.08 0.10 0.13 0.15 0.15 0.14 0.15 0.19 0.30 0.51 0.58 0.48 0.39 0.35 0.35 0.39 0.40 0.42
0.00 0.00 0.00 0.00 0.00 0.00 0.00 0.00 0.00 0.00 0.00 0.00 0.00 0.00 0.00 0.00 0.00 0.00 0.00 0.01 0.01 0.03 0.05 0.05 0.05 0.07 0.09 0.12 0.18 0.20 0.19 0.18 0.18 0.22 0.32 0.51 0.63 0.61 0.51 0.47 0.45 0.44 0.43 0.43
0.00 0.00 0.00 0.00 0.00 0.00 0.00 0.00 0.00 0.00 0.00 0.00 0.00 0.00 0.00 0.00 0.00 0.01 0.01 0.03 0.04 0.06 0.07 0.08 0.10 0.12 0.12 0.16 0.22 0.25 0.25 0.23 0.24 0.25 0.31 0.48 0.67 0.71 0.57 0.46 0.44 0.42 0.37 0.35
0.00 0.00 0.00 0.00 0.00 0.00 0.00 0.00 0.00 0.00 0.00 0.00 0.00 0.00 0.00 0.00 0.01 0.02 0.04 0.07 0.10 0.13 0.15 0.18 0.19 0.17 0.15 0.20 0.25 0.28 0.29 0.28 0.27 0.26 0.28 0.38 0.60 0.80 0.80 0.59 0.45 0.39 0.30 0.21
0.00 0.00 0.00 0.00 0.00 0.00 0.00 0.00 0.00 0.00 0.00 0.00 0.00 0.00 0.00 0.01 0.02 0.04 0.09 0.15 0.21 0.24 0.25 0.26 0.23 0.18 0.19 0.25 0.27 0.27 0.28 0.27 0.24 0.23 0.22 0.29 0.49 0.74 0.90 0.83 0.67 0.49 0.29 0.15
0.00 0.00 0.00 0.00 0.00 0.00 0.00 0.00 0.00 0.00 0.00 0.00 0.00 0.00 0.01 0.02 0.05 0.09 0.15 0.26 0.36 0.36 0.32 0.29 0.25 0.21 0.23 0.27 0.27 0.25 0.25 0.23 0.21 0.20 0.20 0.23 0.39 0.63 0.81 0.87 0.80 0.71 0.45 0.17
0.00 0.00 0.00 0.00 0.00 0.00 0.00 0.00 0.00 0.00 0.00 0.00 0.00 0.01 0.01 0.04 0.08 0.13 0.21 0.37 0.54 0.55 0.44 0.36 0.30 0.27 0.27 0.28 0.26 0.23 0.21 0.16 0.14 0.15 0.16 0.19 0.29 0.49 0.72 0.85 0.80 0.75 0.58 0.24
0.00 0.00 0.00 0.00 0.00 0.00 0.00 0.00 0.00 0.00 0.00 0.00 0.01 0.02 0.04 0.09 0.15 0.22 0.34 0.44 0.51 0.49 0.44 0.41 0.36 0.30 0.29 0.28 0.26 0.23 0.20 0.15 0.10 0.10 0.15 0.20 0.26 0.43 0.65 0.79 0.74 0.68 0.56 0.26
0.00 0.00 0.00 0.00 0.00 0.00 0.00 0.00 0.00 0.00 0.01 0.02 0.05 0.05 0.08 0.17 0.28 0.45 0.57 0.61 0.55 0.43 0.37 0.38 0.34 0.28 0.26 0.22 0.20 0.19 0.18 0.18 0.15 0.15 0.18 0.21 0.27 0.42 0.61 0.73 0.67 0.60 0.47 0.23
0.00 0.00 0.00 0.00 0.00 0.00 0.00 0.00 0.00 0.01 0.02 0.06 0.08 0.07 0.09 0.17 0.31 0.50 0.61 0.73 0.77 0.62 0.43 0.32 0.27 0.22 0.19 0.15 0.15 0.15 0.16 0.17 0.17 0.17 0.19 0.18 0.28 0.43 0.56 0.61 0.54 0.46 0.33 0.15
0.00 0.00 0.00 0.00 0.00 0.00 0.00 0.00 0.00 0.01 0.04 0.09 0.09 0.07 0.09 0.15 0.31 0.51 0.63 0.74 0.79 0.72 0.52 0.35 0.24 0.17 0.12 0.09 0.09 0.12 0.16 0.19 0.20 0.20 0.21 0.23 0.32 0.44 0.49 0.47 0.39 0.29 0.19 0.10
0.00 0.00 0.00 0.00 0.00 0.00 0.00 0.00 0.00 0.02 0.06 0.09 0.07 0.06 0.09 0.16 0.27 0.48 0.77 0.93 0.81 0.67 0.52 0.39 0.26 0.15 0.09 0.07 0.07 0.10 0.14 0.17 0.21 0.25 0.27 0.29 0.35 0.40 0.38 0.32 0.22 0.15 0.09 0.05
0.00 0.00 0.00 0.00 0.00 0.00 0.00 0.00 0.00 0.02 0.05 0.06 0.05 0.06 0.11 0.18 0.28 0.40 0.58 0.86 0.93 0.84 0.59 0.40 0.27 0.15 0.09 0.07 0.08 0.09 0.11 0.13 0.16 0.21 0.23 0.24 0.26 0.27 0.25 0.17 0.11 0.07 0.04 0.03
0.00 0.00 0.00 0.00 0.00 0.00 0.00 0.00 0.00 0.01 0.02 0.04 0.04 0.06 0.11 0.19 0.32 0.55 0.66 0.66 0.75 0.85 0.62 0.40 0.30 0.20 0.11 0.09 0.10 0.10 0.10 0.14 0.20 0.22 0.18 0.17 0.16 0.15 0.13 0.09 0.05 0.03 0.03 0.03
0.00 0.00 0.00 0.00 0.00 0.00 0.00 0.00 0.00 0.00 0.00 0.01 0.02 0.03 0.07 0.15 0.23 0.37 0.54 0.62 0.64 0.69 0.52 0.36 0.28 0.20 0.15 0.13 0.14 0.16 0.21 0.27 0.27 0.21 0.15 0.13 0.12 0.10 0.08 0.06 0.04 0.03 0.04 0.04
0.00 0.00 0.00 0.00 0.00 0.00 0.00 0.00 0.00 0.00 0.00 0.00 0.01 0.01 0.02 0.07 0.18 0.28 0.38 0.45 0.58 0.64 0.52 0.38 0.29 0.26 0.21 0.19 0.21 0.29 0.35 0.30 0.23 0.18 0.13 0.11 0.10 0.09 0.07 0.04 0.04 0.04 0.05 0.04
0.00 0.00 0.00 0.00 0.00 0.00 0.00 0.00 0.00 0.00 0.00 0.00 0.01 0.01 0.02 0.03 0.06 0.13 0.22 0.29 0.40 0.53 0.47 0.33 0.21 0.20 0.21 0.23 0.26 0.29 0.28 0.23 0.18 0.17 0.16 0.14 0.12 0.10 0.08 0.07 0.05 0.05 0.04 0.02
0.00 0.00 0.00 0.00 0.00 0.00 0.00 0.00 0.00 0.00 0.00 0.00 0.01 0.02 0.03 0.03 0.04 0.07 0.11 0.17 0.24 0.28 0.27 0.20 0.12 0.11 0.11 0.13 0.14 0.15 0.16 0.18 0.18 0.17 0.17 0.17 0.16 0.14 0.10 0.08 0.06 0.06 0.05 0.03

GEFSNGP_prec_meanprecacc_030.txt.gz
Total_Precipitation_Accumulation
0.00 0.01 0.02 0.03 0.05 0.03 0.01 0.00 0.02 0.02 0.03 0.01 0.00 0.00 0.00 0.00 0.00 0.00 0.00 0.00 0.00 0.00 0.01 0.01 0.01 0.01 0.02 0.02 0.02 0.03 0.04 0.04 0.04 0.04 0.05 0.05 0.05 0.04 0.04 0.04 0.05 0.08 0.10 0.10
0.00 0.01 0.01 0.03 0.06 0.02 0.00 0.00 0.00 0.00 0.00 0.00 0.00 0.01 0.02 0.02 0.01 0.02 0.02 0.03 0.04 0.04 0.05 0.04 0.04 0.04 0.03 0.03 0.03 0.04 0.04 0.04 0.03 0.03 0.03 0.04 0.04 0.03 0.03 0.03 0.06 0.09 0.12 0.12
0.00 0.00 0.01 0.05 0.03 0.01 0.00 0.00 0.00 0.01 0.02 0.02 0.03 0.05 0.08 0.11 0.12 0.13 0.12 0.10 0.07 0.05 0.03 0.02 0.01 0.01 0.00 0.00 0.00 0.01 0.01 0.02 0.02 0.02 0.03 0.03 0.03 0.03 0.03 0.04 0.06 0.10 0.13 0.14
0.00 0.00 0.03 0.04 0.00 0.00 0.00 0.00 0.01 0.03 0.05 0.09 0.12 0.17 0.23 0.27 0.21 0.11 0.06 0.03 0.01 0.00 0.00 0.00 0.00 0.00 0.00 0.00 0.00 0.00 0.01 0.01 0.02 0.03 0.03 0.05 0.06 0.06 0.08 0.08 0.08 0.11 0.14 0.17
0.00 0.00 0.02 0.01 0.00 0.01 0.02 0.02 0.04 0.10 0.15 0.18 0.18 0.13 0.09 0.06 0.03 0.01 0.01 0.00 0.00 0.00 0.00 0.00 0.00 0.00 0.00 0.00 0.00 0.01 0.02 0.04 0.06 0.07 0.08 0.10 0.12 0.14 0.16 0.16 0.15 0.14 0.15 0.18
0.00 0.00 0.01 0.01 0.02 0.06 0.07 0.12 0.13 0.12 0.09 0.05 0.02 0.01 0.00 0.00 0.00 0.00 0.00 0.00 0.00 0.00 0.00 0.00 0.00 0.00 0.00 0.00 0.01 0.01 0.03 0.05 0.08 0.12 0.16 0.18 0.20 0.22 0.23 0.23 0.21 0.19 0.17 0.18
0.00 0.00 0.00 0.00 0.01 0.03 0.05 0.07 0.03 0.01 0.01 0.00 0.00 0.00 0.00 0.00 0.00 0.00 0.00 0.00 0.00 0.00 0.00 0.00 0.00 0.01 0.02 0.03 0.03 0.04 0.05 0.06 0.08 0.13 0.19 0.21 0.24 0.27 0.29 0.28 0.29 0.27 0.23 0.22
0.00 0.01 0.01 0.00 0.00 0.00 0.00 0.00 0.00 0.00 0.00 0.00 0.00 0.00 0.00 0.00 0.00 0.00 0.00 0.00 0.00 0.00 0.00 0.00 0.01 0.03 0.05 0.06 0.06 0.08 0.09 0.10 0.11 0.16 0.22 0.24 0.29 0.32 0.35 0.37 0.39 0.39 0.38 0.34
0.00 0.01 0.00 0.00 0.00 0.00 0.00 0.00 0.00 0.00 0.00 0.00 0.00 0.00 0.00 0.00 0.00 0.00 0.00 0.00 0.00 0.00 0.00 0.01 0.02 0.05 0.09 0.09 0.10 0.12 0.13 0.13 0.16 0.19 0.29 0.40 0.41 0.38 0.40 0.42 0.41 0.41 0.45 0.46
0.00 0.00 0.00 0.00 0.00 0.00 0.00 0.00 0.00 0.00 0.00 0.00 0.00 0.00 0.00 0.00 0.00 0.00 0.00 0.00 0.00 0.01 0.02 0.03 0.04 0.06 0.09 0.12 0.16 0.19 0.18 0.17 0.18 0.23 0.35 0.56 0.65 0.56 0.49 0.46 0.45 0.46 0.45 0.45
0.00 0.00 0.00 0.00 0.00 0.00 0.00 0.00 0.00 0.00 0.00 0.00 0.00 0.00 0.00 0.00 0.00 0.00 0.00 0.01 0.01 0.03 0.05 0.05 0.06 0.08 0.11 0.16 0.22 0.24 0.22 0.20 0.20 0.26 0.37 0.56 0.69 0.67 0.59 0.56 0.55 0.54 0.49 0.46
0.00 0.00 0.00 0.00 0.00 0.00 0.00 0.00 0.00 0.00 0.00 0.00 0.00 0.00 0.00 0.00 0.00 0.01 0.01 0.03 0.04 0.06 0.08 0.09 0.11 0.13 0.15 0.20 0.26 0.30 0.29 0.25 0.26 0.29 0.35 0.53 0.72 0.78 0.63 0.53 0.53 0.50 0.43 0.39
0.00 0.00 0.00 0.00 0.00 0.00 0.00 0.00 0.00 0.00 0.00 0.00 0.00 0.00 0.00 0.00 0.01 0.02 0.04 0.07 0.10 0.14 0.16 0.18 0.20 0.19 0.19 0.25 0.31 0.34 0.33 0.30 0.29 0.29 0.30 0.40 0.63 0.84 0.86 0.65 0.52 0.45 0.34 0.25
0.00 0.00 0.00 0.00 0.00 0.00 0.00 0.00 0.00 0.00 0.00 0.00 0.00 0.00 0.00 0.01 0.02 0.04 0.09 0.15 0.21 0.25 0.26 0.27 0.26 0.22 0.23 0.30 0.33 0.32 0.32 0.29 0.26 0.24 0.23 0.30 0.50 0.76 0.93 0.88 0.73 0.53 0.32 0.18
0.00 0.00 0.00 0.00 0.00 0.00 0.00 0.00 0.00 0.00 0.00 0.00 0.00 0.00 0.01 0.02 0.05 0.09 0.15 0.26 0.36 0.37 0.33 0.31 0.28 0.25 0.27 0.32 0.32 0.29 0.29 0.25 0.22 0.21 0.20 0.23 0.40 0.64 0.82 0.89 0.83 0.73 0.47 0.19
0.00 0.00 0.00 0.00 0.00 0.00 0.00 0.00 0.00 0.00 0.00 0.00 0.00 0.01 0.01 0.04 0.08 0.13 0.21 0.37 0.54 0.55 0.45 0.39 0.33 0.31 0.32 0.33 0.31 0.27 0.24 0.19 0.15 0.16 0.17 0.19 0.30 0.50 0.73 0.86 0.81 0.77 0.60 0.25
0.00 0.00 0.00 0.00 0.00 0.00 0.00 0.00 0.00 0.00 0.00 0.00 0.01 0.02 0.04 0.09 0.15 0.22 0.34 0.44 0.51 0.49 0.45 0.43 0.38 0.34 0.33 0.32 0.31 0.27 0.23 0.18 0.11 0.10 0.15 0.20 0.26 0.43 0.65 0.80 0.75 0.69 0.57 0.27
0.00 0.00 0.00 0.00 0.00 0.00 0.00 0.00 0.00 0.00 0.01 0.02 0.05 0.05 0.08 0.17 0.28 0.45 0.57 0.61 0.55 0.43 0.37 0.39 0.35 0.31 0.29 0.26 0.24 0.22 0.20 0.20 0.16 0.15 0.19 0.21 0.27 0.42 0.61 0.74 0.68 0.61 0.49 0.24
0.00 0.00 0.00 0.00 0.00 0.00 0.00 0.00 0.00 0.01 0.02 0.06 0.08 0.07 0.09 0.17 0.31 0.50 0.61 0.73 0.77 0.62 0.43 0.32 0.29 0.24 0.22 0.18 0.19 0.18 0.17 0.18 0.17 0.17 0.19 0.18 0.28 0.43 0.56 0.61 0.54 0.47 0.34 0.17
0.00 0.00 0.00 0.00 0.00 0.00 0.00 0.00 0.00 0.01 0.04 0.09 0.09 0.07 0.09 0.15 0.31 0.51 0.63 0.74 0.79 0.72 0.52 0.35 0.24 0.18 0.14 0.11 0.12 0.15 0.18 0.20 0.21 0.21 0.21 0.24 0.33 0.44 0.49 0.47 0.39 0.30 0.21 0.13
0.00 0.00 0.00 0.00 0.00 0.00 0.00 0.00 0.00 0.02 0.06 0.09 0.07 0.06 0.09 0.16 0.27 0.48 0.77 0.93 0.81 0.67 0.52 0.39 0.26 0.16 0.11 0.10 0.09 0.12 0.15 0.18 0.22 0.26 0.28 0.30 0.35 0.40 0.38 0.32 0.23 0.16 0.11 0.08
0.00 0.00 0.00 0.00 0.00 0.00 0.00 0.00 0.00 0.02 0.05 0.06 0.05 0.06 0.11 0.18 0.28 0.40 0.58 0.86 0.93 0.84 0.59 0.40 0.27 0.16 0.11 0.10 0.09 0.10 0.12 0.14 0.17 0.22 0.23 0.24 0.26 0.27 0.25 0.18 0.11 0.07 0.05 0.04
0.00 0.00 0.00 0.00 0.00 0.00 0.00 0.00 0.00 0.01 0.02 0.04 0.04 0.06 0.11 0.19 0.32 0.55 0.66 0.66 0.75 0.85 0.62 0.40 0.31 0.21 0.13 0.10 0.11 0.11 0.12 0.15 0.21 0.23 0.18 0.17 0.16 0.15 0.13 0.09 0.05 0.03 0.03 0.03
0.00 0.00 0.00 0.00 0.00 0.00 0.00 0.00 0.00 0.00 0.00 0.01 0.02 0.03 0.07 0.15 0.23 0.37 0.54 0.62 0.64 0.69 0.52 0.36 0.28 0.21 0.16 0.13 0.15 0.17 0.21 0.28 0.28 0.22 0.15 0.13 0.12 0.10 0.08 0.06 0.04 0.03 0.04 0.04
0.00 0.00 0.00 0.00 0.00 0.00 0.00 0.00 0.00 0.00 0.00 0.00 0.01 0.01 0.02 0.07 0.18 0.28 0.38 0.45 0.58 0.64 0.52 0.38 0.29 0.26 0.22 0.20 0.22 0.30 0.36 0.30 0.24 0.19 0.14 0.11 0.10 0.10 0.07 0.04 0.04 0.04 0.05 0.04
0.01 0.01 0.01 0.01 0.00 0.00 0.00 0.00 0.00 0.00 0.00 0.00 0.01 0.01 0.02 0.03 0.06 0.13 0.22 0.29 0.40 0.53 0.47 0.33 0.21 0.20 0.21 0.24 0.28 0.31 0.29 0.24 0.18 0.17 0.16 0.15 0.12 0.10 0.08 0.07 0.05 0.05 0.04 0.02
0.02 0.02 0.01 0.01 0.01 0.00 0.00 0.00 0.00 0.00 0.00 0.00 0.01 0.02 0.03 0.03 0.04 0.07 0.11 0.17 0.24 0.28 0.27 0.20 0.12 0.11 0.12 0.14 0.17 0.18 0.18 0.20 0.19 0.18 0.18 0.18 0.16 0.14 0.11 0.08 0.06 0.06 0.05 0.03

GEFSNGP_prec_meanprecacc_036.txt.gz
Total_Precipitation_Accumulation
0.00 0.01 0.02 0.03 0.05 0.03 0.01 0.00 0.02 0.02 0.03 0.01 0.00 0.00 0.00 0.00 0.00 0.00 0.00 0.00 0.00 0.00 0.01 0.01 0.01 0.01 0.02 0.02 0.02 0.03 0.04 0.04 0.04 0.04 0.05 0.05 0.05 0.04 0.04 0.05 0.06 0.09 0.11 0.12
0.00 0.01 0.01 0.03 0.06 0.02 0.00 0.00 0.00 0.00 0.00 0.00 0.00 0.01 0.02 0.02 0.01 0.02 0.02 0.03 0.04 0.04 0.05 0.04 0.04 0.04 0.03 0.03 0.03 0.04 0.04 0.04 0.03 0.04 0.04 0.04 0.04 0.04 0.04 0.05 0.08 0.12 0.15 0.15
0.00 0.00 0.01 0.05 0.03 0.01 0.00 0.00 0.00 0.01 0.02 0.02 0.03 0.05 0.08 0.11 0.12 0.13 0.12 0.10 0.07 0.05 0.03 0.02 0.01 0.01 0.00 0.00 0.00 0.01 0.02 0.02 0.02 0.03 0.04 0.04 0.04 0.05 0.06 0.08 0.11 0.15 0.19 0.20
0.00 0.00 0.03 0.04 0.00 0.00 0.00 0.00 0.01 0.03 0.05 0.09 0.12 0.17 0.23 0.27 0.21 0.11 0.06 0.03 0.01 0.00 0.00 0.00 0.00 0.00 0.00 0.00 0.00 0.01 0.01 0.02 0.03 0.04 0.05 0.07 0.08 0.10 0.12 0.14 0.16 0.19 0.22 0.24
0.00 0.00 0.02 0.01 0.00 0.01 0.02 0.02 0.04 0.10 0.15 0.18 0.18 0.13 0.09 0.06 0.03 0.01 0.01 0.00 0.00 0.00 0.00 0.00 0.00 0.00 0.00 0.00 0.00 0.01 0.03 0.05 0.08 0.09 0.11 0.14 0.16 0.19 0.22 0.24 0.23 0.23 0.25 0.28
0.00 0.00 0.01 0.01 0.02 0.06 0.07 0.12 0.13 0.12 0.09 0.05 0.02 0.01 0.00 0.00 0.00 0.00 0.00 0.00 0.00 0.00 0.00 0.00 0.00 0.00 0.00 0.01 0.01 0.02 0.04 0.07 0.10 0.15 0.20 0.22 0.25 0.29 0.31 0.32 0.31 0.29 0.27 0.29
0.00 0.00 0.00 0.00 0.01 0.03 0.05 0.07 0.03 0.01 0.01 0.00 0.00 0.00 0.00 0.00 0.00 0.00 0.00 0.00 0.00 0.00 0.00 0.01 0.00 0.01 0.02 0.03 0.04 0.05 0.06 0.08 0.10 0.16 0.24 0.27 0.30 0.34 0.37 0.38 0.38 0.38 0.33 0.32
0.00 0.01 0.01 0.00 0.00 0.00 0.00 0.00 0.00 0.00 0.00 0.00 0.00 0.00 0.00 0.00 0.00 0.00 0.00 0.00 0.00 0.00 0.00 0.01 0.01 0.03 0.06 0.07 0.07 0.09 0.11 0.12 0.13 0.19 0.26 0.28 0.36 0.39 0.43 0.46 0.48 0.48 0.47 0.44
0.00 0.01 0.00 0.00 0.00 0.00 0.00 0.00 0.00 0.00 0.00 0.00 0.00 0.00 0.00 0.00 0.00 0.00 0.00 0.00 0.00 0.00 0.00 0.01 0.02 0.06 0.10 0.11 0.12 0.14 0.15 0.16 0.18 0.22 0.32 0.45 0.48 0.44 0.47 0.50 0.50 0.51 0.55 0.56
0.00 0.00 0.00 0.00 0.00 0.00 0.00 0.00 0.00 0.00 0.00 0.00 0.00 0.00 0.00 0.00 0.00 0.00 0.00 0.00 0.00 0.01 0.02 0.03 0.04 0.06 0.10 0.14 0.18 0.21 0.21 0.19 0.21 0.26 0.38 0.60 0.70 0.62 0.56 0.55 0.56 0.58 0.55 0.55
0.00 0.00 0.00 0.00 0.00 0.00 0.00 0.00 0.00 0.00 0.00 0.00 0.00 0.00 0.00 0.00 0.00 0.00 0.00 0.01 0.01 0.03 0.05 0.05 0.06 0.08 0.12 0.17 0.24 0.27 0.25 0.22 0.23 0.28 0.40 0.59 0.73 0.72 0.64 0.62 0.63 0.62 0.59 0.56
0.00 0.00 0.00 0.00 0.00 0.00 0.00 0.00 0.00 0.00 0.00 0.00 0.00 0.00 0.00 0.00 0.00 0.01 0.01 0.03 0.04 0.06 0.08 0.09 0.11 0.14 0.16 0.21 0.29 0.33 0.31 0.27 0.28 0.31 0.38 0.56 0.76 0.82 0.68 0.57 0.55 0.52 0.47 0.45
0.00 0.00 0.00 0.00 0.00 0.00 0.00 0.00 0.00 0.00 0.00 0.00 0.00 0.00 0.00 0.00 0.01 0.02 0.04 0.07 0.10 0.14 0.16 0.19 0.21 0.20 0.20 0.26 0.33 0.37 0.36 0.32 0.31 0.32 0.33 0.43 0.66 0.88 0.92 0.71 0.56 0.48 0.37 0.28
0.00 0.00 0.00 0.00 0.00 0.00 0.00 0.00 0.00 0.00 0.00 0.00 0.00 0.00 0.00 0.01 0.02 0.04 0.09 0.15 0.21 0.25 0.26 0.27 0.26 0.23 0.25 0.32 0.35 0.35 0.34 0.31 0.29 0.27 0.26 0.33 0.53 0.80 0.99 0.94 0.79 0.58 0.35 0.20
0.00 0.00 0.00 0.00 0.00 0.00 0.00 0.00 0.00 0.00 0.00 0.00 0.00 0.00 0.01 0.02 0.05 0.09 0.15 0.26 0.36 0.37 0.33 0.31 0.29 0.26 0.28 0.34 0.34 0.32 0.31 0.27 0.24 0.24 0.23 0.26 0.43 0.69 0.88 0.94 0.87 0.77 0.51 0.22
0.00 0.00 0.00 0.00 0.00 0.00 0.00 0.00 0.00 0.00 0.00 0.00 0.00 0.01 0.01 0.04 0.08 0.13 0.21 0.37 0.54 0.55 0.46 0.39 0.34 0.32 0.33 0.35 0.33 0.29 0.27 0.20 0.17 0.17 0.19 0.22 0.33 0.54 0.78 0.91 0.86 0.81 0.64 0.29
0.00 0.00 0.00 0.00 0.00 0.00 0.00 0.00 0.00 0.00 0.00 0.00 0.01 0.02 0.04 0.09 0.15 0.22 0.34 0.44 0.51 0.49 0.45 0.43 0.38 0.35 0.34 0.35 0.33 0.29 0.25 0.20 0.12 0.11 0.17 0.22 0.28 0.46 0.69 0.85 0.80 0.72 0.59 0.29
0.00 0.00 0.00 0.00 0.00 0.00 0.00 0.00 0.00 0.00 0.01 0.02 0.05 0.05 0.08 0.17 0.28 0.45 0.57 0.61 0.55 0.43 0.37 0.39 0.36 0.31 0.30 0.27 0.25 0.24 0.22 0.21 0.18 0.17 0.20 0.23 0.29 0.45 0.65 0.77 0.71 0.64 0.51 0.26
0.00 0.00 0.00 0.00 0.00 0.00 0.00 0.00 0.00 0.01 0.02 0.06 0.08 0.07 0.09 0.17 0.31 0.50 0.61 0.73 0.77 0.62 0.43 0.32 0.29 0.25 0.23 0.19 0.19 0.20 0.19 0.20 0.19 0.19 0.21 0.20 0.29 0.45 0.59 0.64 0.58 0.50 0.37 0.20
0.00 0.00 0.00 0.00 0.00 0.00 0.00 0.00 0.00 0.01 0.04 0.09 0.09 0.07 0.09 0.15 0.31 0.51 0.63 0.74 0.79 0.72 0.52 0.35 0.24 0.18 0.14 0.11 0.13 0.17 0.19 0.21 0.22 0.23 0.23 0.26 0.34 0.46 0.51 0.49 0.42 0.34 0.26 0.17
0.00 0.00 0.00 0.00 0.00 0.00 0.00 0.00 0.00 0.02 0.06 0.09 0.07 0.06 0.09 0.16 0.27 0.48 0.77 0.93 0.81 0.67 0.52 0.40 0.26 0.16 0.11 0.10 0.10 0.13 0.16 0.19 0.23 0.27 0.29 0.31 0.36 0.41 0.41 0.34 0.25 0.19 0.15 0.12
0.00 0.00 0.00 0.00 0.00 0.00 0.00 0.00 0.00 0.02 0.05 0.06 0.05 0.06 0.11 0.18 0.28 0.40 0.58 0.86 0.93 0.84 0.59 0.40 0.27 0.16 0.12 0.11 0.10 0.11 0.13 0.14 0.18 0.22 0.25 0.25 0.28 0.29 0.26 0.19 0.12 0.09 0.07 0.06
0.00 0.00 0.00 0.00 0.00 0.00 0.00 0.00 0.00 0.01 0.02 0.04 0.04 0.06 0.11 0.19 0.32 0.55 0.66 0.66 0.75 0.85 0.62 0.40 0.31 0.21 0.13 0.11 0.12 0.12 0.12 0.15 0.21 0.23 0.19 0.18 0.17 0.17 0.15 0.10 0.06 0.05 0.04 0.05
0.00 0.00 0.00 0.00 0.00 0.00 0.00 0.00 0.00 0.00 0.00 0.01 0.02 0.03 0.07 0.15 0.23 0.37 0.54 0.62 0.64 0.69 0.52 0.36 0.28 0.21 0.16 0.14 0.15 0.17 0.22 0.28 0.29 0.22 0.16 0.14 0.13 0.11 0.09 0.07 0.04 0.04 0.05 0.06
0.00 0.00 0.00 0.01 0.01 0.01 0.01 0.00 0.00 0.00 0.00 0.00 0.01 0.01 0.02 0.07 0.18 0.28 0.38 0.45 0.58 0.64 0.52 0.38 0.29 0.26 0.22 0.20 0.23 0.31 0.36 0.31 0.24 0.19 0.14 0.11 0.10 0.10 0.07 0.05 0.04 0.05 0.05 0.05
0.01 0.01 0.01 0.01 0.01 0.01 0.01 0.01 0.01 0.01 0.01 0.01 0.01 0.01 0.02 0.03 0.06 0.13 0.22 0.29 0.40 0.53 0.47 0.33 0.21 0.20 0.21 0.25 0.29 0.32 0.30 0.25 0.20 0.18 0.17 0.15 0.12 0.10 0.08 0.07 0.06 0.05 0.04 0.03
0.02 0.02 0.02 0.02 0.02 0.03 0.03 0.03 0.03 0.03 0.02 0.02 0.02 0.03 0.03 0.03 0.04 0.07 0.11 0.17 0.24 0.28 0.27 0.20 0.12 0.11 0.12 0.14 0.17 0.19 0.20 0.21 0.21 0.20 0.19 0.18 0.16 0.14 0.11 0.08 0.07 0.06 0.05 0.03

GEFSNGP_prec_meanprecacc_042.txt.gz
Total_Precipitation_Accumulation
0.00 0.01 0.02 0.03 0.05 0.03 0.01 0.00 0.02 0.02 0.03 0.01 0.00 0.00 0.00 0.00 0.00 0.00 0.00 0.00 0.00 0.00 0.01 0.01 0.01 0.01 0.02 0.02 0.03 0.03 0.04 0.04 0.05 0.05 0.06 0.06 0.06 0.06 0.06 0.07 0.08 0.11 0.14 0.15
0.00 0.01 0.01 0.03 0.06 0.02 0.00 0.00 0.00 0.00 0.00 0.00 0.00 0.01 0.02 0.02 0.01 0.02 0.02 0.03 0.04 0.04 0.05 0.04 0.04 0.04 0.04 0.04 0.04 0.05 0.05 0.04 0.04 0.05 0.05 0.06 0.06 0.06 0.06 0.08 0.11 0.16 0.19 0.19
0.00 0.01 0.01 0.06 0.04 0.01 0.00 0.00 0.00 0.01 0.02 0.02 0.03 0.05 0.08 0.11 0.12 0.13 0.12 0.10 0.07 0.05 0.03 0.02 0.01 0.01 0.01 0.01 0.01 0.02 0.02 0.03 0.04 0.05 0.05 0.06 0.06 0.07 0.09 0.12 0.16 0.21 0.24 0.26
0.00 0.00 0.04 0.04 0.00 0.00 0.00 0.00 0.01 0.03 0.05 0.09 0.12 0.17 0.23 0.27 0.21 0.11 0.06 0.03 0.01 0.00 0.00 0.00 0.00 0.00 0.01 0.01 0.01 0.02 0.02 0.03 0.04 0.06 0.07 0.08 0.11 0.13 0.17 0.20 0.22 0.26 0.29 0.31
0.00 0.00 0.02 0.01 0.01 0.01 0.02 0.02 0.04 0.10 0.15 0.18 0.18 0.13 0.09 0.06 0.03 0.01 0.01 0.00 0.00 0.00 0.00 0.00 0.01 0.01 0.01 0.01 0.01 0.02 0.04 0.07 0.09 0.11 0.13 0.16 0.19 0.23 0.28 0.31 0.30 0.31 0.32 0.37
0.00 0.00 0.01 0.01 0.02 0.06 0.07 0.12 0.13 0.12 0.09 0.05 0.02 0.01 0.00 0.00 0.00 0.00 0.00 0.00 0.00 0.00 0.00 0.01 0.01 0.01 0.02 0.02 0.03 0.04 0.05 0.08 0.11 0.17 0.22 0.26 0.30 0.34 0.37 0.40 0.39 0.38 0.36 0.40
0.00 0.00 0.00 0.01 0.01 0.03 0.05 0.07 0.03 0.01 0.01 0.00 0.00 0.00 0.00 0.00 0.00 0.00 0.00 0.00 0.00 0.00 0.00 0.01 0.02 0.03 0.04 0.05 0.06 0.06 0.07 0.09 0.12 0.18 0.28 0.31 0.36 0.41 0.45 0.47 0.48 0.48 0.45 0.45
0.00 0.01 0.01 0.01 0.00 0.00 0.00 0.00 0.00 0.00 0.00 0.00 0.00 0.00 0.00 0.00 0.00 0.00 0.00 0.00 0.00 0.00 0.00 0.01 0.03 0.06 0.08 0.09 0.09 0.10 0.12 0.14 0.15 0.21 0.29 0.32 0.42 0.46 0.51 0.55 0.57 0.58 0.59 0.57
0.00 0.01 0.00 0.00 0.00 0.00 0.00 0.00 0.00 0.00 0.00 0.00 0.00 0.00 0.00 0.00 0.00 0.00 0.00 0.00 0.00 0.00 0.01 0.02 0.04 0.08 0.12 0.12 0.13 0.15 0.17 0.17 0.21 0.25 0.37 0.51 0.55 0.53 0.57 0.61 0.61 0.62 0.66 0.69
0.00 0.00 0.00 0.00 0.00 0.00 0.00 0.00 0.00 0.00 0.00 0.00 0.00 0.00 0.00 0.00 0.00 0.00 0.00 0.00 0.00 0.01 0.02 0.04 0.05 0.08 0.12 0.15 0.19 0.22 0.22 0.21 0.23 0.29 0.42 0.66 0.79 0.73 0.67 0.67 0.66 0.67 0.65 0.67
0.00 0.00 0.00 0.00 0.00 0.00 0.00 0.00 0.00 0.00 0.00 0.00 0.00 0.00 0.00 0.00 0.00 0.00 0.00 0.01 0.01 0.03 0.05 0.06 0.07 0.09 0.13 0.18 0.25 0.28 0.26 0.24 0.25 0.32 0.46 0.67 0.84 0.83 0.70 0.68 0.66 0.65 0.65 0.65
0.00 0.00 0.00 0.00 0.00 0.00 0.00 0.00 0.00 0.00 0.00 0.00 0.00 0.00 0.00 0.00 0.00 0.01 0.01 0.03 0.04 0.06 0.08 0.10 0.12 0.15 0.17 0.22 0.29 0.35 0.33 0.29 0.30 0.35 0.45 0.65 0.88 0.95 0.75 0.58 0.55 0.53 0.48 0.46
0.00 0.00 0.00 0.00 0.00 0.00 0.00 0.00 0.00 0.00 0.00 0.00 0.00 0.00 0.00 0.00 0.01 0.02 0.04 0.07 0.11 0.14 0.16 0.19 0.21 0.21 0.21 0.27 0.34 0.38 0.38 0.35 0.34 0.36 0.41 0.54 0.78 1.02 1.06 0.80 0.58 0.49 0.38 0.28
0.00 0.00 0.00 0.00 0.00 0.00 0.00 0.00 0.00 0.00 0.00 0.00 0.00 0.00 0.00 0.01 0.02 0.04 0.09 0.15 0.21 0.25 0.26 0.27 0.26 0.24 0.25 0.32 0.35 0.36 0.36 0.33 0.31 0.32 0.34 0.43 0.65 0.92 1.12 1.09 0.91 0.65 0.37 0.21
0.00 0.00 0.00 0.00 0.00 0.00 0.00 0.00 0.00 0.00 0.00 0.00 0.00 0.00 0.01 0.02 0.05 0.09 0.15 0.26 0.36 0.37 0.34 0.32 0.29 0.27 0.29 0.34 0.35 0.33 0.32 0.29 0.26 0.27 0.29 0.34 0.51 0.77 0.98 1.06 1.01 0.89 0.59 0.25
0.00 0.00 0.00 0.00 0.00 0.00 0.00 0.00 0.00 0.00 0.00 0.00 0.00 0.01 0.01 0.04 0.08 0.13 0.21 0.37 0.54 0.55 0.46 0.39 0.34 0.32 0.33 0.35 0.34 0.29 0.28 0.22 0.18 0.19 0.23 0.27 0.38 0.61 0.87 1.02 0.97 0.91 0.72 0.36
0.00 0.00 0.00 0.00 0.00 0.00 0.00 0.00 0.00 0.00 0.00 0.00 0.01 0.02 0.04 0.09 0.15 0.22 0.34 0.44 0.51 0.49 0.45 0.43 0.38 0.35 0.34 0.35 0.34 0.29 0.26 0.21 0.14 0.14 0.22 0.28 0.34 0.52 0.76 0.94 0.89 0.79 0.65 0.32
0.00 0.00 0.00 0.00 0.00 0.00 0.00 0.00 0.00 0.00 0.01 0.02 0.05 0.05 0.08 0.17 0.28 0.45 0.57 0.61 0.55 0.43 0.37 0.39 0.36 0.31 0.30 0.27 0.26 0.24 0.23 0.23 0.20 0.21 0.26 0.28 0.33 0.50 0.71 0.84 0.79 0.70 0.57 0.30
0.00 0.00 0.00 0.00 0.00 0.00 0.00 0.00 0.00 0.01 0.02 0.06 0.08 0.07 0.09 0.17 0.31 0.50 0.61 0.73 0.77 0.62 0.43 0.32 0.29 0.25 0.23 0.19 0.19 0.20 0.20 0.21 0.21 0.23 0.26 0.24 0.34 0.50 0.64 0.69 0.64 0.56 0.43 0.27
0.00 0.00 0.00 0.00 0.00 0.00 0.00 0.00 0.00 0.01 0.04 0.09 0.09 0.07 0.09 0.15 0.31 0.51 0.63 0.74 0.79 0.72 0.52 0.35 0.24 0.18 0.14 0.11 0.13 0.17 0.19 0.22 0.24 0.25 0.26 0.32 0.40 0.52 0.56 0.53 0.46 0.38 0.30 0.23
0.00 0.00 0.00 0.00 0.00 0.00 0.00 0.00 0.00 0.02 0.07 0.09 0.07 0.06 0.09 0.16 0.27 0.48 0.77 0.93 0.81 0.67 0.52 0.40 0.26 0.16 0.11 0.10 0.10 0.13 0.16 0.19 0.24 0.29 0.31 0.35 0.42 0.46 0.46 0.38 0.28 0.21 0.18 0.17
0.00 0.00 0.00 0.00 0.00 0.00 0.00 0.00 0.00 0.03 0.05 0.06 0.05 0.06 0.11 0.18 0.28 0.40 0.58 0.86 0.93 0.84 0.59 0.40 0.27 0.16 0.12 0.11 0.10 0.11 0.13 0.14 0.19 0.23 0.26 0.28 0.32 0.34 0.32 0.24 0.16 0.11 0.10 0.12
0.00 0.00 0.00 0.00 0.00 0.00 0.00 0.00 0.00 0.01 0.02 0.04 0.05 0.07 0.11 0.19 0.32 0.55 0.66 0.66 0.75 0.85 0.62 0.40 0.31 0.21 0.13 0.11 0.12 0.12 0.12 0.15 0.22 0.24 0.20 0.19 0.19 0.21 0.20 0.14 0.10 0.07 0.07 0.09
0.00 0.00 0.00 0.00 0.00 0.00 0.00 0.00 0.00 0.01 0.01 0.01 0.02 0.03 0.07 0.16 0.23 0.37 0.54 0.62 0.64 0.69 0.52 0.36 0.28 0.21 0.16 0.14 0.15 0.17 0.22 0.28 0.29 0.22 0.16 0.14 0.13 0.12 0.13 0.11 0.07 0.06 0.07 0.09
0.00 0.00 0.00 0.01 0.01 0.01 0.01 0.01 0.01 0.01 0.01 0.01 0.02 0.02 0.03 0.08 0.18 0.29 0.38 0.46 0.58 0.65 0.52 0.38 0.29 0.26 0.22 0.20 0.23 0.31 0.36 0.31 0.25 0.19 0.15 0.12 0.11 0.10 0.09 0.08 0.08 0.07 0.08 0.08
0.01 0.01 0.01 0.01 0.01 0.01 0.01 0.01 0.02 0.02 0.02 0.02 0.02 0.03 0.03 0.04 0.08 0.15 0.24 0.30 0.41 0.53 0.47 0.33 0.21 0.20 0.21 0.25 0.29 0.32 0.30 0.25 0.20 0.18 0.17 0.15 0.13 0.11 0.09 0.08 0.08 0.07 0.06 0.05
0.02 0.02 0.02 0.02 0.02 0.03 0.03 0.03 0.04 0.04 0.05 0.05 0.05 0.06 0.07 0.08 0.08 0.10 0.14 0.19 0.25 0.29 0.27 0.21 0.12 0.11 0.12 0.14 0.17 0.19 0.21 0.22 0.21 0.21 0.20 0.18 0.17 0.15 0.11 0.08 0.07 0.07 0.05 0.04

GEFSNGP_prec_meanprecacc_048.txt.gz
Total_Precipitation_Accumulation
0.00 0.01 0.02 0.03 0.05 0.03 0.01 0.00 0.02 0.02 0.03 0.01 0.00 0.00 0.00 0.00 0.00 0.00 0.00 0.00 0.00 0.00 0.01 0.01 0.01 0.01 0.02 0.02 0.03 0.03 0.04 0.04 0.05 0.05 0.06 0.06 0.06 0.06 0.06 0.07 0.08 0.11 0.14 0.15
0.00 0.01 0.01 0.03 0.06 0.03 0.01 0.00 0.00 0.00 0.00 0.00 0.00 0.01 0.02 0.02 0.01 0.02 0.02 0.03 0.04 0.04 0.05 0.04 0.04 0.04 0.04 0.04 0.04 0.05 0.05 0.05 0.04 0.05 0.05 0.06 0.06 0.06 0.06 0.08 0.11 0.16 0.19 0.19
0.00 0.01 0.01 0.06 0.05 0.02 0.01 0.00 0.00 0.01 0.02 0.02 0.03 0.05 0.08 0.11 0.12 0.13 0.12 0.10 0.07 0.05 0.03 0.02 0.01 0.01 0.01 0.01 0.01 0.02 0.03 0.03 0.04 0.05 0.05 0.06 0.06 0.07 0.09 0.12 0.16 0.21 0.24 0.26
0.00 0.00 0.04 0.04 0.01 0.01 0.01 0.01 0.01 0.03 0.05 0.09 0.12 0.17 0.23 0.27 0.21 0.11 0.06 0.03 0.01 0.00 0.00 0.00 0.00 0.00 0.01 0.01 0.01 0.02 0.02 0.03 0.04 0.06 0.07 0.08 0.11 0.13 0.17 0.20 0.22 0.26 0.29 0.32
0.00 0.00 0.02 0.01 0.02 0.03 0.03 0.02 0.04 0.10 0.15 0.18 0.18 0.13 0.09 0.06 0.03 0.01 0.01 0.00 0.00 0.00 0.00 0.00 0.01 0.01 0.01 0.01 0.02 0.02 0.04 0.07 0.09 0.11 0.13 0.16 0.20 0.24 0.28 0.31 0.30 0.31 0.32 0.37
0.00 0.01 0.03 0.02 0.03 0.07 0.07 0.12 0.13 0.12 0.09 0.05 0.02 0.01 0.00 0.00 0.00 0.00 0.00 0.00 0.00 0.00 0.00 0.01 0.01 0.02 0.02 0.02 0.03 0.04 0.05 0.08 0.11 0.17 0.23 0.26 0.30 0.34 0.38 0.40 0.39 0.39 0.37 0.40
0.00 0.01 0.02 0.03 0.02 0.03 0.05 0.07 0.03 0.01 0.01 0.00 0.00 0.00 0.00 0.00 0.00 0.00 0.00 0.00 0.00 0.00 0.00 0.01 0.02 0.03 0.04 0.06 0.06 0.06 0.07 0.09 0.12 0.18 0.28 0.31 0.36 0.41 0.46 0.47 0.48 0.49 0.46 0.46
0.00 0.03 0.02 0.01 0.01 0.00 0.00 0.00 0.00 0.00 0.00 0.00 0.00 0.00 0.00 0.00 0.00 0.00 0.00 0.00 0.00 0.00 0.00 0.01 0.03 0.06 0.08 0.10 0.09 0.10 0.12 0.14 0.15 0.22 0.30 0.32 0.42 0.46 0.52 0.56 0.58 0.59 0.60 0.58
0.00 0.01 0.00 0.00 0.00 0.00 0.00 0.00 0.00 0.00 0.00 0.00 0.00 0.00 0.00 0.00 0.00 0.00 0.00 0.00 0.00 0.00 0.01 0.02 0.04 0.08 0.12 0.13 0.13 0.15 0.17 0.17 0.21 0.25 0.37 0.52 0.56 0.53 0.57 0.62 0.62 0.62 0.67 0.70
0.00 0.00 0.00 0.00 0.00 0.00 0.00 0.00 0.00 0.00 0.00 0.00 0.00 0.00 0.00 0.00 0.00 0.00 0.00 0.00 0.00 0.01 0.02 0.04 0.05 0.08 0.12 0.15 0.19 0.22 0.22 0.21 0.23 0.30 0.43 0.67 0.80 0.74 0.68 0.68 0.67 0.68 0.66 0.67
0.00 0.00 0.00 0.00 0.00 0.00 0.00 0.00 0.00 0.00 0.00 0.00 0.00 0.00 0.00 0.00 0.00 0.00 0.00 0.01 0.01 0.03 0.05 0.06 0.07 0.09 0.13 0.18 0.25 0.28 0.26 0.24 0.25 0.32 0.46 0.68 0.85 0.85 0.71 0.69 0.66 0.66 0.65 0.65
0.00 0.00 0.00 0.00 0.00 0.00 0.00 0.00 0.00 0.00 0.00 0.00 0.00 0.00 0.00 0.00 0.00 0.01 0.01 0.03 0.04 0.06 0.08 0.10 0.12 0.15 0.17 0.22 0.29 0.35 0.34 0.29 0.30 0.35 0.46 0.66 0.89 0.96 0.76 0.58 0.56 0.53 0.48 0.46
0.00 0.00 0.00 0.00 0.00 0.00 0.00 0.00 0.00 0.00 0.00 0.00 0.00 0.00 0.00 0.00 0.01 0.02 0.04 0.07 0.11 0.14 0.16 0.19 0.21 0.21 0.21 0.27 0.34 0.38 0.39 0.35 0.34 0.37 0.42 0.54 0.79 1.04 1.08 0.81 0.59 0.50 0.38 0.28
0.00 0.00 0.00 0.00 0.00 0.00 0.00 0.00 0.00 0.00 0.00 0.00 0.00 0.00 0.00 0.01 0.02 0.04 0.09 0.15 0.21 0.25 0.26 0.27 0.26 0.24 0.25 0.32 0.35 0.36 0.36 0.33 0.32 0.33 0.35 0.44 0.66 0.94 1.14 1.11 0.93 0.66 0.38 0.21
0.00 0.00 0.00 0.00 0.00 0.00 0.00 0.00 0.00 0.00 0.00 0.00 0.00 0.00 0.01 0.02 0.05 0.09 0.15 0.26 0.36 0.37 0.34 0.32 0.29 0.27 0.29 0.34 0.35 0.33 0.32 0.29 0.26 0.27 0.29 0.35 0.53 0.79 1.00 1.08 1.02 0.90 0.60 0.27
0.00 0.00 0.00 0.00 0.00 0.00 0.00 0.00 0.00 0.00 0.00 0.00 0.00 0.01 0.02 0.04 0.08 0.13 0.21 0.37 0.54 0.55 0.46 0.39 0.34 0.32 0.33 0.35 0.34 0.29 0.28 0.22 0.18 0.20 0.24 0.28 0.40 0.63 0.89 1.03 0.98 0.92 0.74 0.37
0.00 0.01 0.00 0.00 0.00 0.00 0.00 0.00 0.00 0.00 0.01 0.01 0.02 0.03 0.05 0.10 0.15 0.23 0.34 0.44 0.51 0.49 0.45 0.43 0.38 0.35 0.34 0.35 0.34 0.29 0.26 0.21 0.14 0.14 0.23 0.29 0.35 0.53 0.78 0.95 0.91 0.81 0.66 0.33
0.01 0.01 0.00 0.00 0.00 0.00 0.00 0.00 0.00 0.01 0.02 0.03 0.05 0.06 0.09 0.17 0.29 0.45 0.57 0.61 0.55 0.43 0.37 0.39 0.36 0.31 0.30 0.27 0.26 0.24 0.23 0.23 0.20 0.21 0.27 0.30 0.34 0.51 0.72 0.86 0.80 0.71 0.58 0.31
0.01 0.01 0.01 0.01 0.01 0.01 0.00 0.00 0.01 0.01 0.03 0.07 0.09 0.07 0.10 0.17 0.32 0.50 0.62 0.74 0.77 0.63 0.43 0.32 0.29 0.25 0.23 0.19 0.19 0.20 0.20 0.21 0.21 0.23 0.27 0.26 0.35 0.52 0.65 0.70 0.65 0.58 0.45 0.29
0.01 0.01 0.01 0.01 0.01 0.01 0.01 0.01 0.01 0.02 0.05 0.09 0.09 0.07 0.09 0.16 0.31 0.51 0.64 0.74 0.80 0.72 0.52 0.36 0.25 0.18 0.14 0.11 0.13 0.17 0.19 0.22 0.24 0.26 0.27 0.33 0.42 0.53 0.57 0.53 0.47 0.40 0.32 0.25
0.01 0.01 0.01 0.00 0.00 0.00 0.00 0.00 0.01 0.03 0.07 0.09 0.08 0.06 0.10 0.16 0.28 0.48 0.77 0.93 0.81 0.67 0.52 0.40 0.27 0.17 0.11 0.11 0.10 0.13 0.16 0.19 0.24 0.29 0.31 0.36 0.43 0.48 0.46 0.39 0.29 0.23 0.20 0.19
0.00 0.00 0.00 0.00 0.00 0.00 0.00 0.00 0.01 0.03 0.05 0.06 0.05 0.07 0.11 0.18 0.29 0.40 0.58 0.87 0.94 0.85 0.60 0.41 0.28 0.17 0.12 0.11 0.10 0.11 0.13 0.14 0.19 0.23 0.26 0.28 0.32 0.35 0.33 0.25 0.17 0.13 0.12 0.14
0.00 0.00 0.00 0.00 0.00 0.00 0.00 0.00 0.00 0.02 0.03 0.04 0.05 0.07 0.12 0.20 0.32 0.56 0.67 0.67 0.77 0.87 0.65 0.43 0.33 0.22 0.14 0.11 0.12 0.12 0.12 0.15 0.22 0.24 0.20 0.20 0.20 0.22 0.21 0.15 0.12 0.10 0.10 0.12
0.00 0.00 0.00 0.00 0.00 0.00 0.00 0.00 0.00 0.01 0.01 0.01 0.02 0.03 0.08 0.17 0.25 0.39 0.57 0.67 0.70 0.76 0.58 0.41 0.31 0.22 0.17 0.14 0.16 0.18 0.22 0.28 0.29 0.22 0.16 0.15 0.13 0.13 0.15 0.13 0.09 0.09 0.12 0.13
0.00 0.00 0.00 0.01 0.01 0.01 0.01 0.01 0.01 0.01 0.01 0.01 0.02 0.03 0.06 0.12 0.24 0.38 0.50 0.59 0.71 0.75 0.61 0.44 0.33 0.28 0.23 0.21 0.23 0.31 0.37 0.31 0.25 0.19 0.15 0.12 0.11 0.11 0.10 0.10 0.10 0.10 0.12 0.12
0.01 0.01 0.01 0.01 0.01 0.01 0.01 0.02 0.02 0.02 0.02 0.03 0.04 0.06 0.09 0.13 0.20 0.30 0.41 0.47 0.55 0.64 0.56 0.39 0.25 0.22 0.22 0.25 0.29 0.32 0.30 0.25 0.20 0.18 0.17 0.15 0.13 0.11 0.09 0.09 0.10 0.09 0.08 0.07
0.02 0.02 0.02 0.02 0.02 0.03 0.03 0.04 0.05 0.05 0.06 0.09 0.12 0.16 0.17 0.18 0.22 0.27 0.34 0.37 0.38 0.39 0.34 0.25 0.15 0.12 0.12 0.14 0.17 0.19 0.21 0.22 0.21 0.21 0.20 0.19 0.17 0.15 0.12 0.09 0.09 0.09 0.07 0.05

GEFSNGP_prec_meanprecacc_054.txt.gz
Total_Precipitation_Accumulation
0.00 0.01 0.02 0.04 0.05 0.04 0.01 0.01 0.02 0.02 0.03 0.01 0.00 0.00 0.00 0.00 0.00 0.00 0.00 0.00 0.00 0.00 0.01 0.01 0.01 0.01 0.02 0.02 0.03 0.03 0.04 0.04 0.05 0.05 0.06 0.06 0.06 0.06 0.06 0.07 0.08 0.11 0.14 0.15
0.00 0.01 0.02 0.04 0.07 0.03 0.01 0.00 0.00 0.00 0.00 0.00 0.00 0.01 0.02 0.02 0.01 0.02 0.02 0.03 0.04 0.04 0.05 0.04 0.04 0.04 0.04 0.04 0.04 0.05 0.05 0.05 0.04 0.05 0.05 0.06 0.06 0.06 0.06 0.08 0.11 0.16 0.19 0.19
0.00 0.01 0.01 0.06 0.05 0.02 0.01 0.00 0.00 0.01 0.02 0.02 0.03 0.05 0.08 0.11 0.12 0.13 0.12 0.10 0.07 0.05 0.03 0.02 0.01 0.01 0.01 0.01 0.01 0.02 0.03 0.03 0.04 0.05 0.05 0.06 0.06 0.07 0.09 0.12 0.16 0.21 0.24 0.26
0.00 0.00 0.04 0.04 0.01 0.01 0.01 0.01 0.01 0.03 0.05 0.09 0.12 0.17 0.23 0.27 0.21 0.11 0.06 0.03 0.01 0.00 0.00 0.00 0.00 0.00 0.01 0.01 0.01 0.02 0.02 0.03 0.04 0.06 0.07 0.08 0.11 0.13 0.17 0.20 0.22 0.26 0.29 0.32
0.00 0.01 0.02 0.01 0.02 0.03 0.03 0.02 0.05 0.10 0.15 0.18 0.18 0.13 0.09 0.06 0.03 0.01 0.01 0.00 0.00 0.00 0.00 0.00 0.01 0.01 0.01 0.01 0.02 0.02 0.04 0.07 0.09 0.11 0.13 0.16 0.20 0.24 0.28 0.31 0.30 0.31 0.32 0.37
0.01 0.01 0.03 0.03 0.04 0.07 0.07 0.12 0.13 0.12 0.09 0.05 0.02 0.01 0.00 0.00 0.00 0.00 0.00 0.00 0.00 0.00 0.00 0.01 0.01 0.02 0.02 0.02 0.03 0.04 0.05 0.08 0.11 0.17 0.23 0.26 0.30 0.34 0.38 0.40 0.39 0.39 0.37 0.40
0.01 0.01 0.02 0.04 0.03 0.03 0.06 0.07 0.03 0.01 0.01 0.00 0.00 0.00 0.00 0.00 0.00 0.00 0.00 0.00 0.00 0.00 0.00 0.01 0.02 0.03 0.04 0.06 0.06 0.06 0.07 0.09 0.12 0.18 0.28 0.31 0.36 0.41 0.46 0.47 0.48 0.49 0.46 0.46
0.01 0.03 0.02 0.02 0.01 0.00 0.00 0.00 0.00 0.00 0.00 0.00 0.00 0.00 0.00 0.00 0.00 0.00 0.00 0.00 0.00 0.00 0.00 0.01 0.03 0.06 0.08 0.10 0.09 0.10 0.12 0.14 0.15 0.22 0.30 0.32 0.42 0.46 0.52 0.56 0.58 0.59 0.60 0.58
0.01 0.01 0.00 0.00 0.00 0.00 0.00 0.00 0.00 0.00 0.00 0.00 0.00 0.00 0.00 0.00 0.00 0.00 0.00 0.00 0.00 0.00 0.01 0.02 0.04 0.08 0.12 0.13 0.13 0.15 0.17 0.17 0.21 0.25 0.37 0.52 0.56 0.53 0.57 0.62 0.62 0.62 0.67 0.70
0.00 0.00 0.00 0.00 0.00 0.00 0.00 0.00 0.00 0.00 0.00 0.00 0.00 0.00 0.00 0.00 0.00 0.00 0.00 0.00 0.00 0.01 0.02 0.04 0.05 0.08 0.12 0.15 0.19 0.22 0.22 0.21 0.23 0.30 0.43 0.67 0.80 0.74 0.68 0.68 0.67 0.68 0.66 0.67
0.00 0.00 0.00 0.00 0.00 0.00 0.00 0.00 0.00 0.00 0.00 0.00 0.00 0.00 0.00 0.00 0.00 0.00 0.00 0.01 0.01 0.03 0.05 0.06 0.07 0.09 0.13 0.18 0.25 0.28 0.26 0.24 0.25 0.32 0.46 0.68 0.85 0.85 0.71 0.69 0.66 0.66 0.65 0.65
0.00 0.00 0.00 0.00 0.00 0.00 0.00 0.00 0.00 0.00 0.00 0.00 0.00 0.00 0.00 0.00 0.00 0.01 0.01 0.03 0.04 0.06 0.08 0.10 0.12 0.15 0.17 0.22 0.29 0.35 0.34 0.29 0.30 0.35 0.46 0.66 0.89 0.96 0.76 0.58 0.56 0.53 0.48 0.46
0.00 0.00 0.00 0.00 0.00 0.00 0.00 0.00 0.00 0.00 0.00 0.00 0.00 0.00 0.00 0.00 0.01 0.02 0.04 0.07 0.11 0.14 0.16 0.19 0.21 0.21 0.21 0.27 0.34 0.38 0.39 0.35 0.34 0.37 0.42 0.54 0.79 1.04 1.08 0.81 0.59 0.50 0.38 0.28
0.00 0.00 0.00 0.00 0.00 0.00 0.00 0.00 0.00 0.00 0.00 0.00 0.00 0.00 0.00 0.01 0.02 0.04 0.09 0.15 0.21 0.25 0.26 0.28 0.26 0.24 0.25 0.32 0.35 0.36 0.36 0.33 0.32 0.33 0.35 0.44 0.66 0.94 1.14 1.11 0.93 0.67 0.38 0.21
0.00 0.00 0.00 0.00 0.00 0.00 0.00 0.00 0.00 0.00 0.00 0.00 0.00 0.00 0.01 0.02 0.05 0.10 0.16 0.27 0.37 0.37 0.34 0.32 0.29 0.27 0.29 0.34 0.35 0.33 0.32 0.29 0.26 0.27 0.29 0.35 0.53 0.79 1.00 1.08 1.02 0.90 0.60 0.27
0.00 0.00 0.00 0.00 0.00 0.00 0.00 0.01 0.01 0.01 0.01 0.01 0.01 0.02 0.03 0.05 0.09 0.14 0.22 0.38 0.54 0.55 0.46 0.39 0.34 0.32 0.33 0.35 0.34 0.29 0.28 0.22 0.18 0.20 0.24 0.28 0.40 0.63 0.89 1.03 0.98 0.92 0.74 0.38
0.01 0.01 0.01 0.01 0.01 0.01 0.01 0.01 0.01 0.01 0.02 0.02 0.03 0.04 0.06 0.11 0.16 0.23 0.35 0.45 0.51 0.50 0.45 0.43 0.38 0.35 0.34 0.35 0.34 0.29 0.26 0.21 0.14 0.14 0.23 0.29 0.35 0.53 0.78 0.95 0.91 0.81 0.67 0.34
0.01 0.01 0.01 0.02 0.02 0.02 0.01 0.01 0.01 0.02 0.03 0.04 0.06 0.07 0.10 0.18 0.30 0.45 0.57 0.61 0.56 0.43 0.37 0.39 0.36 0.31 0.30 0.28 0.26 0.24 0.23 0.23 0.20 0.21 0.27 0.30 0.34 0.51 0.72 0.86 0.80 0.71 0.58 0.32
0.03 0.03 0.03 0.02 0.02 0.02 0.01 0.01 0.01 0.02 0.03 0.08 0.10 0.08 0.11 0.17 0.32 0.50 0.62 0.74 0.77 0.63 0.43 0.32 0.29 0.25 0.23 0.19 0.20 0.20 0.20 0.21 0.21 0.23 0.27 0.26 0.35 0.52 0.65 0.70 0.66 0.58 0.45 0.29
0.03 0.03 0.02 0.02 0.02 0.01 0.01 0.01 0.01 0.02 0.05 0.10 0.10 0.07 0.09 0.16 0.31 0.51 0.64 0.74 0.80 0.72 0.53 0.36 0.25 0.19 0.15 0.12 0.13 0.17 0.19 0.22 0.24 0.26 0.27 0.33 0.42 0.53 0.57 0.53 0.47 0.41 0.33 0.26
0.01 0.01 0.01 0.01 0.01 0.00 0.00 0.00 0.01 0.03 0.07 0.09 0.08 0.06 0.10 0.16 0.28 0.48 0.77 0.93 0.82 0.68 0.53 0.40 0.27 0.17 0.12 0.11 0.11 0.14 0.17 0.19 0.24 0.29 0.31 0.36 0.43 0.48 0.47 0.39 0.29 0.23 0.21 0.20
0.00 0.00 0.00 0.00 0.00 0.00 0.00 0.00 0.01 0.03 0.05 0.06 0.05 0.07 0.11 0.18 0.29 0.40 0.59 0.87 0.94 0.86 0.61 0.41 0.29 0.18 0.13 0.12 0.11 0.12 0.13 0.15 0.19 0.23 0.26 0.28 0.32 0.35 0.33 0.25 0.17 0.14 0.13 0.15
0.00 0.00 0.00 0.00 0.00 0.00 0.00 0.00 0.00 0.02 0.03 0.04 0.05 0.07 0.12 0.20 0.32 0.56 0.67 0.68 0.78 0.88 0.66 0.44 0.35 0.25 0.16 0.13 0.13 0.13 0.13 0.16 0.22 0.24 0.20 0.20 0.20 0.22 0.22 0.16 0.12 0.10 0.11 0.13
0.00 0.00 0.00 0.00 0.00 0.00 0.00 0.00 0.00 0.01 0.01 0.01 0.02 0.03 0.08 0.17 0.25 0.39 0.57 0.67 0.71 0.77 0.60 0.43 0.34 0.25 0.19 0.15 0.17 0.19 0.22 0.28 0.29 0.22 0.16 0.15 0.13 0.13 0.15 0.13 0.10 0.09 0.12 0.13
0.00 0.00 0.00 0.01 0.01 0.01 0.01 0.01 0.01 0.01 0.01 0.01 0.02 0.03 0.06 0.12 0.25 0.38 0.50 0.60 0.73 0.78 0.64 0.48 0.36 0.31 0.26 0.23 0.25 0.32 0.37 0.32 0.25 0.19 0.15 0.12 0.11 0.11 0.10 0.10 0.11 0.11 0.13 0.12
0.01 0.01 0.01 0.01 0.01 0.01 0.01 0.02 0.02 0.02 0.02 0.03 0.04 0.06 0.09 0.13 0.20 0.30 0.41 0.49 0.57 0.67 0.59 0.41 0.27 0.25 0.24 0.27 0.31 0.34 0.31 0.25 0.20 0.18 0.17 0.15 0.13 0.11 0.09 0.10 0.10 0.10 0.09 0.07
0.02 0.02 0.02 0.02 0.02 0.03 0.03 0.04 0.05 0.05 0.07 0.09 0.13 0.17 0.18 0.19 0.22 0.28 0.34 0.38 0.41 0.42 0.38 0.28 0.18 0.16 0.16 0.16 0.19 0.21 0.22 0.22 0.21 0.21 0.20 0.19 0.17 0.15 0.12 0.10 0.10 0.10 0.08 0.06

GEFSNGP_prec_meanprecacc_060.txt.gz
Total_Precipitation_Accumulation
0.00 0.01 0.02 0.04 0.05 0.04 0.01 0.01 0.02 0.02 0.03 0.01 0.00 0.00 0.00 0.00 0.00 0.00 0.00 0.00 0.00 0.00 0.01 0.01 0.01 0.01 0.02 0.02 0.03 0.03 0.04 0.04 0.05 0.05 0.06 0.06 0.06 0.06 0.06 0.07 0.08 0.11 0.14 0.15
0.00 0.01 0.02 0.04 0.07 0.04 0.01 0.00 0.00 0.00 0.00 0.00 0.00 0.01 0.02 0.02 0.01 0.02 0.02 0.03 0.04 0.04 0.05 0.04 0.04 0.04 0.04 0.04 0.04 0.05 0.05 0.05 0.04 0.05 0.05 0.06 0.06 0.06 0.06 0.08 0.11 0.16 0.19 0.20
0.00 0.01 0.01 0.06 0.05 0.02 0.01 0.00 0.00 0.01 0.02 0.02 0.03 0.05 0.08 0.11 0.12 0.13 0.12 0.10 0.07 0.05 0.03 0.02 0.01 0.01 0.01 0.01 0.01 0.02 0.03 0.03 0.04 0.05 0.05 0.06 0.06 0.07 0.09 0.12 0.16 0.21 0.25 0.26
0.00 0.00 0.04 0.04 0.01 0.01 0.01 0.01 0.01 0.03 0.05 0.09 0.12 0.17 0.23 0.27 0.21 0.11 0.06 0.03 0.01 0.00 0.00 0.00 0.00 0.00 0.01 0.01 0.01 0.02 0.02 0.03 0.04 0.06 0.07 0.08 0.11 0.13 0.17 0.21 0.23 0.27 0.29 0.32
0.01 0.01 0.02 0.01 0.02 0.03 0.03 0.02 0.05 0.10 0.15 0.18 0.18 0.13 0.09 0.06 0.03 0.01 0.01 0.00 0.00 0.00 0.00 0.00 0.01 0.01 0.01 0.01 0.02 0.02 0.04 0.07 0.09 0.11 0.13 0.16 0.20 0.24 0.28 0.31 0.31 0.31 0.33 0.38
0.03 0.02 0.03 0.03 0.04 0.08 0.08 0.12 0.13 0.12 0.09 0.05 0.02 0.01 0.00 0.00 0.00 0.00 0.00 0.00 0.00 0.00 0.00 0.01 0.01 0.02 0.02 0.02 0.03 0.04 0.05 0.08 0.11 0.17 0.23 0.26 0.30 0.35 0.38 0.41 0.40 0.39 0.37 0.41
0.04 0.04 0.02 0.04 0.03 0.03 0.06 0.07 0.03 0.01 0.01 0.00 0.00 0.00 0.00 0.00 0.00 0.00 0.00 0.00 0.00 0.00 0.00 0.01 0.02 0.03 0.04 0.06 0.06 0.06 0.07 0.09 0.12 0.18 0.28 0.31 0.36 0.41 0.46 0.48 0.49 0.49 0.46 0.46
0.03 0.05 0.03 0.02 0.01 0.01 0.00 0.00 0.00 0.00 0.00 0.00 0.00 0.00 0.00 0.00 0.00 0.00 0.00 0.00 0.00 0.00 0.00 0.01 0.03 0.06 0.08 0.10 0.09 0.10 0.12 0.14 0.15 0.22 0.30 0.32 0.42 0.46 0.52 0.56 0.58 0.59 0.60 0.58
0.01 0.02 0.00 0.00 0.00 0.00 0.00 0.00 0.00 0.00 0.00 0.00 0.00 0.00 0.00 0.00 0.00 0.00 0.00 0.00 0.00 0.00 0.01 0.02 0.04 0.08 0.12 0.13 0.13 0.15 0.17 0.17 0.21 0.25 0.37 0.52 0.56 0.54 0.58 0.63 0.62 0.63 0.67 0.70
0.00 0.00 0.00 0.00 0.00 0.00 0.00 0.00 0.00 0.00 0.00 0.00 0.00 0.00 0.00 0.00 0.00 0.00 0.00 0.00 0.00 0.01 0.02 0.04 0.06 0.08 0.12 0.15 0.19 0.22 0.22 0.21 0.23 0.30 0.43 0.67 0.80 0.74 0.68 0.68 0.67 0.68 0.66 0.68
0.00 0.00 0.00 0.00 0.00 0.00 0.00 0.00 0.00 0.00 0.00 0.00 0.00 0.00 0.00 0.00 0.00 0.00 0.00 0.01 0.01 0.03 0.05 0.06 0.07 0.09 0.13 0.18 0.25 0.28 0.26 0.24 0.25 0.32 0.46 0.68 0.85 0.85 0.72 0.70 0.67 0.66 0.65 0.65
0.00 0.00 0.00 0.00 0.00 0.00 0.00 0.00 0.00 0.00 0.00 0.00 0.00 0.00 0.00 0.00 0.00 0.01 0.02 0.03 0.05 0.06 0.08 0.10 0.12 0.15 0.17 0.22 0.30 0.35 0.34 0.29 0.30 0.35 0.46 0.66 0.89 0.96 0.76 0.58 0.56 0.53 0.48 0.46
0.00 0.00 0.00 0.00 0.00 0.00 0.00 0.00 0.00 0.00 0.00 0.00 0.00 0.00 0.00 0.01 0.01 0.02 0.04 0.07 0.11 0.14 0.16 0.19 0.22 0.21 0.21 0.27 0.34 0.38 0.39 0.35 0.34 0.37 0.42 0.54 0.79 1.04 1.08 0.81 0.59 0.50 0.38 0.28
0.00 0.00 0.00 0.00 0.00 0.00 0.00 0.00 0.00 0.00 0.00 0.00 0.00 0.00 0.01 0.01 0.02 0.05 0.10 0.15 0.22 0.25 0.26 0.28 0.27 0.24 0.25 0.32 0.35 0.36 0.36 0.33 0.32 0.33 0.35 0.44 0.66 0.95 1.14 1.11 0.94 0.68 0.38 0.21
0.00 0.00 0.00 0.00 0.00 0.00 0.00 0.00 0.00 0.00 0.00 0.01 0.01 0.01 0.01 0.03 0.06 0.11 0.17 0.27 0.37 0.37 0.34 0.32 0.29 0.27 0.29 0.34 0.35 0.33 0.33 0.29 0.27 0.27 0.29 0.35 0.53 0.80 1.01 1.09 1.04 0.91 0.61 0.29
0.00 0.00 0.00 0.00 0.00 0.00 0.01 0.01 0.01 0.01 0.01 0.01 0.02 0.02 0.03 0.06 0.10 0.14 0.23 0.38 0.55 0.56 0.46 0.40 0.35 0.33 0.33 0.36 0.34 0.30 0.28 0.22 0.18 0.20 0.24 0.28 0.40 0.63 0.89 1.04 1.00 0.94 0.77 0.40
0.01 0.01 0.01 0.01 0.01 0.01 0.01 0.01 0.01 0.02 0.02 0.03 0.04 0.05 0.06 0.11 0.17 0.24 0.35 0.45 0.52 0.50 0.46 0.44 0.39 0.35 0.34 0.35 0.34 0.29 0.26 0.21 0.14 0.14 0.23 0.29 0.35 0.53 0.78 0.96 0.92 0.83 0.69 0.35
0.01 0.01 0.02 0.02 0.02 0.02 0.02 0.02 0.02 0.02 0.03 0.05 0.07 0.07 0.10 0.18 0.30 0.46 0.58 0.61 0.56 0.43 0.38 0.39 0.36 0.32 0.30 0.28 0.26 0.24 0.23 0.23 0.20 0.21 0.27 0.30 0.34 0.51 0.73 0.87 0.81 0.73 0.61 0.34
0.03 0.03 0.03 0.03 0.02 0.02 0.01 0.01 0.01 0.02 0.04 0.08 0.10 0.09 0.11 0.18 0.32 0.51 0.62 0.74 0.78 0.63 0.43 0.32 0.29 0.25 0.23 0.19 0.20 0.20 0.20 0.21 0.21 0.24 0.27 0.26 0.36 0.53 0.66 0.71 0.67 0.60 0.47 0.31
0.03 0.03 0.03 0.02 0.02 0.01 0.01 0.01 0.01 0.02 0.05 0.10 0.10 0.07 0.09 0.16 0.31 0.51 0.64 0.74 0.80 0.72 0.53 0.36 0.25 0.19 0.15 0.12 0.13 0.17 0.20 0.22 0.24 0.26 0.27 0.34 0.43 0.54 0.58 0.54 0.48 0.42 0.34 0.29
0.01 0.01 0.01 0.01 0.01 0.01 0.00 0.00 0.01 0.03 0.07 0.09 0.08 0.06 0.10 0.16 0.28 0.48 0.77 0.93 0.82 0.68 0.53 0.40 0.27 0.17 0.12 0.11 0.11 0.14 0.17 0.20 0.25 0.29 0.32 0.37 0.44 0.49 0.48 0.40 0.31 0.26 0.23 0.24
0.00 0.00 0.00 0.00 0.00 0.00 0.00 0.00 0.01 0.03 0.05 0.06 0.06 0.07 0.11 0.18 0.29 0.40 0.59 0.88 0.94 0.86 0.61 0.41 0.29 0.18 0.14 0.12 0.11 0.12 0.14 0.16 0.20 0.24 0.27 0.29 0.33 0.37 0.34 0.27 0.20 0.16 0.16 0.18
0.00 0.00 0.00 0.00 0.00 0.00 0.00 0.00 0.00 0.02 0.03 0.04 0.05 0.07 0.12 0.20 0.33 0.56 0.68 0.68 0.78 0.88 0.66 0.44 0.35 0.25 0.16 0.13 0.13 0.14 0.14 0.17 0.23 0.25 0.21 0.20 0.21 0.23 0.22 0.17 0.14 0.12 0.13 0.14
0.00 0.00 0.00 0.00 0.00 0.00 0.00 0.00 0.00 0.01 0.01 0.01 0.02 0.03 0.08 0.17 0.25 0.40 0.58 0.67 0.72 0.78 0.60 0.43 0.34 0.25 0.19 0.16 0.18 0.20 0.25 0.31 0.32 0.25 0.18 0.16 0.15 0.15 0.16 0.15 0.11 0.11 0.14 0.14
0.00 0.00 0.00 0.01 0.01 0.01 0.01 0.01 0.01 0.01 0.01 0.01 0.02 0.03 0.06 0.12 0.25 0.38 0.51 0.61 0.74 0.79 0.66 0.50 0.38 0.33 0.27 0.25 0.28 0.36 0.42 0.36 0.28 0.22 0.17 0.14 0.13 0.13 0.12 0.12 0.12 0.12 0.14 0.13
0.01 0.01 0.01 0.01 0.01 0.01 0.01 0.02 0.02 0.02 0.03 0.03 0.04 0.06 0.09 0.13 0.20 0.31 0.43 0.50 0.60 0.70 0.62 0.45 0.31 0.28 0.27 0.31 0.37 0.40 0.38 0.31 0.24 0.22 0.19 0.18 0.15 0.13 0.11 0.11 0.12 0.11 0.10 0.08
0.02 0.02 0.02 0.02 0.02 0.03 0.03 0.04 0.05 0.06 0.07 0.10 0.13 0.17 0.18 0.19 0.23 0.29 0.36 0.41 0.45 0.46 0.42 0.32 0.23 0.22 0.21 0.23 0.27 0.29 0.29 0.28 0.26 0.24 0.22 0.20 0.18 0.16 0.13 0.11 0.11 0.11 0.08 0.06

GEFSNGP_prec_meanprecacc_066.txt.gz
Total_Precipitation_Accumulation
0.00 0.03 0.05 0.06 0.06 0.04 0.01 0.01 0.02 0.02 0.03 0.01 0.00 0.00 0.00 0.00 0.00 0.00 0.00 0.00 0.00 0.00 0.01 0.01 0.01 0.01 0.02 0.02 0.03 0.03 0.04 0.04 0.05 0.05 0.06 0.06 0.06 0.06 0.06 0.07 0.08 0.12 0.15 0.15
0.00 0.01 0.02 0.04 0.07 0.04 0.01 0.00 0.00 0.00 0.00 0.00 0.00 0.01 0.02 0.02 0.01 0.02 0.02 0.03 0.04 0.04 0.05 0.04 0.04 0.04 0.04 0.04 0.04 0.05 0.05 0.05 0.04 0.05 0.05 0.06 0.06 0.06 0.06 0.08 0.12 0.17 0.20 0.20
0.00 0.01 0.01 0.06 0.05 0.02 0.01 0.00 0.00 0.01 0.02 0.02 0.03 0.05 0.08 0.11 0.12 0.13 0.12 0.10 0.07 0.05 0.03 0.02 0.01 0.01 0.01 0.01 0.01 0.02 0.03 0.03 0.04 0.05 0.05 0.06 0.06 0.07 0.09 0.12 0.16 0.21 0.25 0.27
0.00 0.00 0.04 0.05 0.03 0.02 0.01 0.01 0.01 0.03 0.06 0.09 0.12 0.17 0.23 0.27 0.21 0.11 0.06 0.03 0.01 0.00 0.00 0.00 0.00 0.00 0.01 0.01 0.01 0.02 0.02 0.03 0.04 0.06 0.07 0.08 0.11 0.13 0.17 0.21 0.23 0.27 0.30 0.33
0.01 0.01 0.03 0.02 0.04 0.05 0.04 0.03 0.05 0.11 0.15 0.18 0.18 0.13 0.09 0.06 0.03 0.01 0.01 0.00 0.00 0.00 0.00 0.00 0.01 0.01 0.01 0.01 0.02 0.02 0.04 0.07 0.09 0.11 0.13 0.16 0.20 0.24 0.29 0.31 0.31 0.32 0.34 0.39
0.03 0.03 0.04 0.05 0.08 0.10 0.10 0.14 0.14 0.13 0.10 0.05 0.02 0.01 0.01 0.00 0.00 0.00 0.00 0.00 0.00 0.00 0.00 0.01 0.01 0.02 0.02 0.02 0.03 0.04 0.05 0.08 0.11 0.17 0.23 0.26 0.30 0.35 0.38 0.41 0.40 0.39 0.37 0.42
0.05 0.05 0.03 0.07 0.06 0.05 0.09 0.12 0.06 0.05 0.04 0.05 0.05 0.04 0.02 0.00 0.00 0.00 0.00 0.00 0.00 0.00 0.00 0.01 0.02 0.03 0.04 0.06 0.06 0.06 0.07 0.09 0.12 0.18 0.28 0.31 0.36 0.41 0.46 0.48 0.49 0.50 0.47 0.47
0.07 0.10 0.07 0.09 0.06 0.06 0.08 0.07 0.04 0.03 0.03 0.03 0.02 0.01 0.00 0.00 0.00 0.00 0.00 0.00 0.00 0.00 0.00 0.01 0.03 0.06 0.08 0.10 0.09 0.10 0.12 0.14 0.15 0.22 0.30 0.32 0.42 0.47 0.52 0.57 0.60 0.60 0.62 0.60
0.04 0.07 0.06 0.07 0.08 0.07 0.08 0.06 0.03 0.02 0.01 0.01 0.01 0.00 0.00 0.00 0.00 0.00 0.00 0.00 0.00 0.00 0.01 0.02 0.04 0.08 0.12 0.13 0.13 0.15 0.17 0.17 0.21 0.25 0.37 0.52 0.57 0.54 0.58 0.64 0.63 0.63 0.68 0.71
0.03 0.05 0.05 0.07 0.09 0.06 0.03 0.01 0.01 0.01 0.00 0.00 0.00 0.00 0.00 0.00 0.00 0.00 0.00 0.00 0.00 0.01 0.02 0.04 0.06 0.08 0.12 0.15 0.19 0.22 0.22 0.21 0.24 0.30 0.43 0.67 0.81 0.74 0.68 0.68 0.68 0.69 0.67 0.69
0.04 0.04 0.05 0.04 0.03 0.01 0.01 0.00 0.00 0.00 0.00 0.00 0.00 0.00 0.00 0.00 0.00 0.00 0.00 0.01 0.02 0.03 0.05 0.06 0.07 0.09 0.13 0.18 0.25 0.28 0.27 0.24 0.25 0.32 0.46 0.68 0.86 0.85 0.72 0.70 0.67 0.66 0.65 0.66
0.04 0.03 0.02 0.03 0.03 0.01 0.01 0.00 0.00 0.00 0.00 0.00 0.00 0.00 0.00 0.00 0.00 0.01 0.02 0.03 0.05 0.07 0.08 0.10 0.12 0.15 0.17 0.22 0.30 0.36 0.34 0.30 0.31 0.35 0.46 0.67 0.89 0.97 0.76 0.59 0.56 0.54 0.48 0.47
0.02 0.01 0.02 0.02 0.02 0.01 0.00 0.00 0.00 0.00 0.00 0.00 0.00 0.00 0.00 0.01 0.01 0.02 0.04 0.08 0.11 0.14 0.17 0.20 0.22 0.21 0.21 0.27 0.35 0.40 0.41 0.37 0.35 0.37 0.42 0.55 0.79 1.04 1.08 0.82 0.60 0.51 0.38 0.28
0.02 0.02 0.02 0.01 0.00 0.00 0.00 0.00 0.00 0.00 0.00 0.00 0.00 0.00 0.01 0.01 0.02 0.05 0.10 0.16 0.22 0.26 0.27 0.28 0.27 0.24 0.26 0.33 0.37 0.39 0.39 0.36 0.34 0.34 0.36 0.45 0.67 0.95 1.14 1.12 0.96 0.70 0.41 0.23
0.01 0.01 0.01 0.00 0.00 0.00 0.00 0.00 0.00 0.00 0.00 0.01 0.01 0.01 0.01 0.03 0.06 0.11 0.17 0.28 0.37 0.38 0.34 0.32 0.30 0.28 0.29 0.35 0.37 0.36 0.36 0.32 0.29 0.29 0.31 0.36 0.54 0.80 1.01 1.10 1.05 0.93 0.65 0.34
0.01 0.01 0.01 0.00 0.01 0.01 0.01 0.01 0.01 0.01 0.01 0.01 0.02 0.02 0.03 0.06 0.10 0.15 0.23 0.38 0.55 0.56 0.47 0.40 0.35 0.33 0.34 0.37 0.36 0.32 0.31 0.24 0.20 0.21 0.25 0.29 0.41 0.64 0.90 1.05 1.01 0.96 0.80 0.44
0.01 0.01 0.02 0.02 0.02 0.02 0.01 0.01 0.01 0.02 0.02 0.03 0.04 0.05 0.06 0.11 0.17 0.24 0.35 0.45 0.52 0.50 0.46 0.44 0.39 0.35 0.35 0.36 0.35 0.30 0.27 0.22 0.15 0.15 0.24 0.30 0.36 0.54 0.79 0.97 0.93 0.85 0.72 0.39
0.02 0.02 0.02 0.02 0.02 0.02 0.02 0.02 0.02 0.02 0.03 0.05 0.07 0.07 0.10 0.18 0.30 0.46 0.58 0.61 0.56 0.43 0.38 0.39 0.36 0.32 0.30 0.28 0.26 0.25 0.23 0.23 0.21 0.22 0.28 0.31 0.36 0.53 0.75 0.88 0.84 0.77 0.65 0.41
0.03 0.03 0.03 0.03 0.03 0.02 0.02 0.02 0.02 0.02 0.04 0.08 0.10 0.09 0.11 0.18 0.32 0.51 0.62 0.74 0.78 0.63 0.43 0.32 0.29 0.25 0.23 0.19 0.20 0.20 0.20 0.22 0.22 0.24 0.28 0.27 0.37 0.55 0.69 0.75 0.72 0.66 0.53 0.38
0.03 0.03 0.03 0.02 0.02 0.01 0.01 0.01 0.01 0.02 0.05 0.10 0.10 0.07 0.09 0.16 0.31 0.51 0.64 0.74 0.80 0.73 0.53 0.36 0.25 0.19 0.15 0.12 0.13 0.17 0.20 0.23 0.26 0.27 0.29 0.36 0.45 0.57 0.62 0.59 0.54 0.48 0.40 0.37
0.01 0.01 0.01 0.01 0.01 0.01 0.00 0.00 0.01 0.03 0.07 0.09 0.08 0.06 0.10 0.16 0.28 0.48 0.77 0.93 0.82 0.68 0.53 0.40 0.27 0.18 0.13 0.12 0.11 0.14 0.18 0.21 0.26 0.32 0.36 0.41 0.49 0.56 0.55 0.48 0.39 0.34 0.31 0.31
0.00 0.00 0.00 0.00 0.00 0.00 0.00 0.00 0.01 0.03 0.05 0.06 0.06 0.07 0.11 0.18 0.29 0.40 0.59 0.88 0.95 0.86 0.61 0.42 0.30 0.19 0.14 0.12 0.12 0.14 0.16 0.18 0.24 0.29 0.32 0.34 0.40 0.46 0.43 0.36 0.29 0.24 0.24 0.27
0.00 0.00 0.00 0.00 0.00 0.00 0.00 0.00 0.00 0.02 0.03 0.04 0.05 0.07 0.12 0.20 0.33 0.56 0.68 0.68 0.78 0.88 0.66 0.45 0.36 0.25 0.16 0.13 0.15 0.17 0.17 0.21 0.27 0.29 0.26 0.26 0.27 0.30 0.32 0.26 0.23 0.20 0.23 0.24
0.00 0.00 0.00 0.00 0.00 0.00 0.00 0.00 0.00 0.01 0.01 0.01 0.02 0.03 0.08 0.17 0.25 0.40 0.58 0.68 0.72 0.78 0.61 0.44 0.35 0.26 0.20 0.18 0.21 0.25 0.31 0.37 0.37 0.31 0.24 0.24 0.24 0.23 0.26 0.25 0.21 0.20 0.23 0.22
0.00 0.00 0.00 0.01 0.01 0.01 0.01 0.01 0.01 0.01 0.01 0.01 0.02 0.03 0.06 0.12 0.25 0.39 0.52 0.62 0.75 0.80 0.68 0.53 0.41 0.35 0.30 0.30 0.34 0.43 0.49 0.42 0.35 0.29 0.24 0.23 0.24 0.24 0.23 0.23 0.23 0.21 0.20 0.19
0.01 0.01 0.01 0.01 0.01 0.01 0.01 0.02 0.02 0.02 0.03 0.03 0.04 0.06 0.09 0.13 0.21 0.32 0.45 0.52 0.61 0.71 0.66 0.50 0.35 0.32 0.33 0.37 0.42 0.45 0.43 0.37 0.32 0.29 0.27 0.26 0.25 0.23 0.20 0.20 0.20 0.18 0.16 0.15
0.02 0.02 0.02 0.02 0.02 0.03 0.03 0.04 0.05 0.06 0.07 0.10 0.13 0.17 0.19 0.21 0.25 0.32 0.39 0.44 0.48 0.49 0.46 0.37 0.27 0.27 0.27 0.27 0.31 0.33 0.35 0.35 0.34 0.32 0.31 0.29 0.27 0.24 0.20 0.17 0.17 0.17 0.14 0.12

GEFSNGP_prec_meanprecacc_072.txt.gz
Total_Precipitation_Accumulation
0.01 0.03 0.06 0.08 0.08 0.06 0.03 0.02 0.03 0.04 0.06 0.04 0.02 0.01 0.01 0.00 0.00 0.00 0.00 0.00 0.00 0.00 0.01 0.01 0.01 0.01 0.02 0.02 0.03 0.03 0.04 0.04 0.05 0.05 0.06 0.06 0.06 0.06 0.06 0.07 0.08 0.12 0.15 0.15
0.01 0.03 0.04 0.06 0.10 0.06 0.03 0.02 0.02 0.02 0.03 0.02 0.02 0.02 0.02 0.02 0.02 0.02 0.02 0.03 0.04 0.05 0.05 0.04 0.04 0.04 0.04 0.04 0.04 0.05 0.05 0.05 0.04 0.05 0.05 0.06 0.06 0.06 0.06 0.08 0.12 0.17 0.20 0.20
0.01 0.02 0.03 0.08 0.07 0.05 0.06 0.05 0.05 0.05 0.06 0.06 0.07 0.07 0.10 0.12 0.13 0.13 0.13 0.10 0.07 0.05 0.03 0.02 0.01 0.01 0.01 0.01 0.01 0.02 0.03 0.03 0.04 0.05 0.05 0.06 0.06 0.07 0.09 0.12 0.16 0.21 0.25 0.27
0.02 0.02 0.06 0.08 0.07 0.05 0.06 0.07 0.08 0.10 0.13 0.15 0.18 0.21 0.27 0.29 0.23 0.13 0.07 0.03 0.01 0.01 0.00 0.00 0.00 0.00 0.01 0.01 0.01 0.02 0.02 0.03 0.04 0.06 0.07 0.08 0.11 0.13 0.17 0.21 0.23 0.27 0.30 0.33
0.03 0.03 0.05 0.05 0.09 0.10 0.09 0.10 0.13 0.19 0.23 0.27 0.25 0.19 0.14 0.10 0.05 0.03 0.02 0.02 0.01 0.01 0.00 0.00 0.01 0.01 0.01 0.01 0.02 0.02 0.04 0.07 0.09 0.11 0.13 0.16 0.20 0.24 0.29 0.31 0.31 0.32 0.34 0.39
0.07 0.06 0.07 0.09 0.13 0.14 0.14 0.21 0.23 0.23 0.20 0.15 0.12 0.12 0.09 0.06 0.04 0.03 0.02 0.01 0.01 0.00 0.00 0.01 0.02 0.02 0.02 0.02 0.03 0.04 0.06 0.08 0.11 0.17 0.23 0.26 0.30 0.35 0.38 0.41 0.40 0.39 0.37 0.42
0.11 0.11 0.10 0.14 0.12 0.10 0.16 0.22 0.22 0.23 0.20 0.18 0.16 0.16 0.14 0.08 0.04 0.03 0.02 0.02 0.01 0.01 0.01 0.02 0.03 0.03 0.05 0.06 0.07 0.07 0.08 0.10 0.12 0.18 0.28 0.32 0.37 0.42 0.46 0.48 0.49 0.50 0.47 0.47
0.19 0.23 0.19 0.20 0.17 0.18 0.22 0.20 0.20 0.18 0.16 0.14 0.11 0.07 0.06 0.05 0.04 0.03 0.02 0.02 0.02 0.01 0.01 0.02 0.04 0.07 0.09 0.11 0.10 0.11 0.13 0.15 0.16 0.22 0.30 0.33 0.42 0.47 0.52 0.57 0.60 0.60 0.62 0.60
0.21 0.23 0.18 0.19 0.19 0.18 0.18 0.17 0.15 0.13 0.09 0.09 0.10 0.10 0.06 0.06 0.06 0.05 0.04 0.03 0.02 0.02 0.03 0.03 0.06 0.10 0.14 0.14 0.14 0.17 0.18 0.18 0.22 0.26 0.38 0.52 0.57 0.54 0.58 0.64 0.64 0.64 0.69 0.72
0.17 0.21 0.22 0.21 0.19 0.14 0.13 0.10 0.06 0.06 0.07 0.06 0.07 0.07 0.08 0.08 0.07 0.05 0.03 0.03 0.03 0.03 0.04 0.06 0.07 0.10 0.15 0.17 0.21 0.25 0.25 0.23 0.25 0.31 0.44 0.68 0.82 0.75 0.69 0.69 0.69 0.70 0.68 0.71
0.14 0.18 0.17 0.18 0.12 0.08 0.06 0.03 0.02 0.02 0.02 0.02 0.02 0.02 0.03 0.04 0.02 0.02 0.02 0.03 0.04 0.06 0.08 0.08 0.09 0.12 0.17 0.23 0.30 0.33 0.31 0.28 0.28 0.34 0.49 0.70 0.87 0.87 0.73 0.71 0.69 0.70 0.69 0.69
0.09 0.12 0.13 0.14 0.09 0.05 0.04 0.03 0.02 0.01 0.01 0.01 0.01 0.01 0.01 0.01 0.02 0.02 0.03 0.05 0.07 0.09 0.11 0.13 0.16 0.20 0.23 0.29 0.36 0.41 0.39 0.36 0.36 0.40 0.50 0.71 0.93 1.00 0.79 0.63 0.60 0.59 0.53 0.51
0.09 0.12 0.15 0.13 0.08 0.06 0.05 0.03 0.02 0.01 0.01 0.01 0.01 0.01 0.01 0.02 0.02 0.03 0.05 0.08 0.12 0.15 0.17 0.21 0.23 0.23 0.24 0.30 0.38 0.44 0.45 0.42 0.39 0.41 0.45 0.58 0.82 1.07 1.11 0.85 0.64 0.54 0.42 0.33
0.10 0.11 0.12 0.10 0.07 0.04 0.03 0.01 0.01 0.00 0.00 0.00 0.00 0.01 0.01 0.02 0.03 0.05 0.10 0.16 0.22 0.26 0.27 0.28 0.27 0.24 0.26 0.33 0.38 0.40 0.41 0.38 0.36 0.36 0.37 0.46 0.69 0.97 1.17 1.15 0.98 0.72 0.44 0.26
0.10 0.10 0.09 0.05 0.03 0.02 0.01 0.01 0.00 0.00 0.00 0.01 0.01 0.01 0.01 0.03 0.06 0.11 0.17 0.28 0.37 0.38 0.34 0.32 0.30 0.28 0.30 0.36 0.37 0.36 0.37 0.33 0.30 0.31 0.32 0.37 0.56 0.83 1.04 1.13 1.08 0.96 0.68 0.37
0.07 0.07 0.05 0.03 0.02 0.02 0.01 0.01 0.01 0.01 0.01 0.01 0.02 0.02 0.03 0.06 0.10 0.15 0.23 0.38 0.55 0.56 0.47 0.40 0.35 0.33 0.34 0.37 0.36 0.32 0.31 0.25 0.20 0.22 0.25 0.30 0.42 0.66 0.92 1.07 1.03 0.98 0.83 0.48
0.06 0.05 0.04 0.03 0.03 0.02 0.02 0.01 0.01 0.02 0.02 0.03 0.04 0.05 0.06 0.11 0.17 0.24 0.35 0.45 0.52 0.50 0.46 0.44 0.39 0.35 0.35 0.36 0.35 0.30 0.27 0.22 0.15 0.15 0.24 0.30 0.37 0.55 0.81 0.99 0.95 0.88 0.76 0.45
0.05 0.04 0.03 0.03 0.03 0.03 0.02 0.02 0.02 0.02 0.03 0.05 0.07 0.07 0.10 0.18 0.30 0.46 0.58 0.61 0.56 0.43 0.38 0.39 0.36 0.32 0.30 0.28 0.26 0.25 0.23 0.23 0.21 0.22 0.28 0.32 0.36 0.54 0.76 0.90 0.87 0.82 0.72 0.49
0.04 0.04 0.04 0.03 0.03 0.02 0.02 0.02 0.02 0.02 0.04 0.08 0.10 0.09 0.11 0.18 0.32 0.51 0.62 0.74 0.78 0.63 0.44 0.32 0.29 0.25 0.23 0.19 0.20 0.20 0.20 0.22 0.22 0.24 0.29 0.28 0.38 0.56 0.71 0.78 0.76 0.72 0.61 0.47
0.03 0.03 0.03 0.02 0.02 0.02 0.01 0.01 0.01 0.02 0.05 0.10 0.10 0.07 0.09 0.16 0.31 0.51 0.64 0.74 0.80 0.73 0.53 0.36 0.25 0.19 0.15 0.12 0.13 0.17 0.20 0.24 0.26 0.28 0.30 0.38 0.47 0.60 0.65 0.64 0.61 0.58 0.53 0.51
0.02 0.01 0.01 0.01 0.01 0.01 0.00 0.00 0.01 0.03 0.07 0.09 0.08 0.06 0.10 0.16 0.28 0.48 0.77 0.94 0.82 0.68 0.53 0.40 0.28 0.18 0.13 0.12 0.11 0.14 0.18 0.21 0.27 0.33 0.37 0.43 0.52 0.61 0.62 0.58 0.51 0.48 0.47 0.48
0.01 0.00 0.00 0.00 0.00 0.00 0.00 0.00 0.01 0.03 0.05 0.06 0.06 0.07 0.11 0.18 0.29 0.40 0.59 0.88 0.95 0.86 0.61 0.42 0.30 0.19 0.14 0.12 0.12 0.14 0.16 0.19 0.24 0.30 0.33 0.37 0.46 0.54 0.52 0.46 0.40 0.38 0.40 0.45
0.00 0.00 0.00 0.00 0.00 0.00 0.00 0.00 0.00 0.02 0.03 0.04 0.05 0.07 0.12 0.20 0.33 0.56 0.68 0.68 0.78 0.88 0.66 0.45 0.36 0.25 0.16 0.13 0.15 0.17 0.18 0.22 0.29 0.31 0.28 0.31 0.34 0.39 0.41 0.37 0.37 0.37 0.40 0.42
0.00 0.00 0.00 0.00 0.00 0.00 0.00 0.00 0.00 0.01 0.01 0.01 0.02 0.03 0.08 0.17 0.25 0.40 0.59 0.69 0.72 0.78 0.61 0.45 0.35 0.26 0.20 0.18 0.22 0.26 0.32 0.38 0.39 0.34 0.28 0.27 0.29 0.31 0.36 0.36 0.33 0.35 0.38 0.39
0.01 0.01 0.01 0.01 0.01 0.01 0.01 0.01 0.01 0.01 0.01 0.01 0.02 0.03 0.06 0.12 0.25 0.39 0.53 0.63 0.75 0.80 0.68 0.53 0.41 0.35 0.30 0.31 0.35 0.44 0.50 0.44 0.36 0.31 0.27 0.26 0.28 0.31 0.33 0.36 0.37 0.34 0.33 0.31
0.01 0.01 0.01 0.01 0.01 0.02 0.01 0.02 0.02 0.02 0.03 0.03 0.04 0.06 0.09 0.14 0.21 0.33 0.46 0.53 0.62 0.72 0.67 0.51 0.35 0.32 0.33 0.38 0.42 0.46 0.44 0.39 0.33 0.31 0.30 0.30 0.32 0.34 0.34 0.36 0.37 0.32 0.28 0.25
0.02 0.02 0.02 0.02 0.02 0.03 0.03 0.04 0.05 0.06 0.07 0.10 0.14 0.17 0.20 0.22 0.26 0.33 0.40 0.45 0.49 0.51 0.47 0.38 0.28 0.27 0.28 0.28 0.32 0.35 0.36 0.37 0.36 0.35 0.35 0.35 0.35 0.34 0.31 0.29 0.28 0.27 0.24 0.21

GEFSNGP_prec_meanprecacc_078.txt.gz
Total_Precipitation_Accumulation
0.01 0.03 0.06 0.08 0.09 0.06 0.04 0.02 0.04 0.04 0.06 0.04 0.02 0.01 0.01 0.01 0.01 0.00 0.00 0.00 0.00 0.01 0.01 0.01 0.01 0.01 0.02 0.03 0.03 0.04 0.04 0.04 0.05 0.05 0.06 0.06 0.06 0.06 0.06 0.07 0.08 0.12 0.15 0.15
0.01 0.03 0.04 0.06 0.10 0.06 0.03 0.03 0.02 0.02 0.03 0.03 0.02 0.02 0.03 0.03 0.02 0.02 0.03 0.03 0.04 0.05 0.05 0.05 0.04 0.04 0.04 0.04 0.05 0.05 0.05 0.05 0.04 0.05 0.05 0.06 0.06 0.06 0.06 0.08 0.12 0.17 0.20 0.20
0.01 0.03 0.03 0.08 0.08 0.06 0.07 0.06 0.05 0.06 0.06 0.07 0.08 0.09 0.11 0.13 0.15 0.15 0.13 0.10 0.08 0.06 0.04 0.03 0.02 0.01 0.02 0.02 0.02 0.02 0.03 0.03 0.04 0.05 0.05 0.06 0.06 0.07 0.09 0.12 0.16 0.21 0.25 0.27
0.02 0.03 0.06 0.08 0.07 0.06 0.07 0.09 0.09 0.11 0.13 0.16 0.20 0.24 0.30 0.32 0.24 0.15 0.08 0.05 0.03 0.03 0.02 0.02 0.01 0.01 0.02 0.02 0.02 0.02 0.03 0.03 0.05 0.06 0.07 0.08 0.11 0.13 0.17 0.21 0.23 0.27 0.30 0.33
0.03 0.03 0.05 0.06 0.09 0.11 0.10 0.11 0.14 0.21 0.25 0.29 0.29 0.23 0.18 0.13 0.08 0.06 0.05 0.04 0.04 0.03 0.03 0.02 0.02 0.02 0.02 0.02 0.03 0.04 0.05 0.08 0.10 0.12 0.14 0.16 0.20 0.24 0.29 0.32 0.31 0.32 0.34 0.39
0.07 0.07 0.08 0.10 0.14 0.16 0.16 0.23 0.24 0.25 0.22 0.17 0.14 0.17 0.13 0.09 0.07 0.06 0.06 0.04 0.04 0.03 0.03 0.03 0.03 0.04 0.04 0.05 0.05 0.06 0.08 0.10 0.13 0.18 0.24 0.27 0.32 0.36 0.39 0.42 0.41 0.40 0.38 0.42
0.12 0.11 0.11 0.15 0.13 0.12 0.19 0.25 0.25 0.24 0.22 0.20 0.20 0.21 0.20 0.13 0.08 0.07 0.07 0.06 0.05 0.04 0.03 0.04 0.05 0.07 0.09 0.10 0.10 0.10 0.11 0.13 0.15 0.21 0.30 0.34 0.38 0.43 0.47 0.49 0.50 0.51 0.47 0.48
0.20 0.24 0.20 0.20 0.18 0.20 0.24 0.23 0.22 0.20 0.17 0.16 0.14 0.11 0.10 0.10 0.09 0.08 0.06 0.06 0.05 0.05 0.05 0.06 0.07 0.10 0.13 0.15 0.15 0.16 0.17 0.18 0.19 0.25 0.33 0.35 0.45 0.49 0.54 0.58 0.60 0.61 0.63 0.61
0.21 0.23 0.19 0.20 0.21 0.21 0.21 0.20 0.17 0.15 0.12 0.12 0.13 0.12 0.09 0.08 0.09 0.08 0.07 0.06 0.05 0.05 0.06 0.07 0.10 0.13 0.18 0.18 0.19 0.20 0.21 0.22 0.25 0.30 0.42 0.56 0.60 0.57 0.61 0.66 0.65 0.64 0.69 0.73
0.18 0.21 0.23 0.22 0.21 0.17 0.15 0.12 0.08 0.09 0.11 0.09 0.08 0.09 0.09 0.10 0.09 0.07 0.06 0.05 0.05 0.06 0.07 0.08 0.09 0.12 0.17 0.20 0.24 0.28 0.27 0.27 0.29 0.35 0.48 0.72 0.85 0.78 0.72 0.71 0.71 0.72 0.70 0.72
0.16 0.19 0.19 0.19 0.13 0.09 0.08 0.07 0.06 0.06 0.05 0.04 0.03 0.03 0.04 0.04 0.03 0.02 0.03 0.04 0.05 0.07 0.09 0.09 0.10 0.14 0.19 0.25 0.33 0.36 0.34 0.32 0.32 0.38 0.52 0.74 0.91 0.90 0.76 0.73 0.72 0.72 0.71 0.71
0.11 0.14 0.15 0.16 0.11 0.08 0.09 0.08 0.07 0.05 0.03 0.02 0.01 0.01 0.01 0.01 0.02 0.02 0.03 0.05 0.07 0.10 0.12 0.13 0.16 0.21 0.25 0.30 0.38 0.44 0.42 0.38 0.39 0.43 0.52 0.73 0.95 1.01 0.81 0.64 0.62 0.61 0.55 0.53
0.11 0.15 0.19 0.17 0.13 0.12 0.12 0.09 0.06 0.05 0.03 0.02 0.01 0.01 0.01 0.02 0.02 0.03 0.05 0.09 0.12 0.16 0.18 0.21 0.24 0.23 0.24 0.30 0.39 0.45 0.45 0.43 0.40 0.41 0.46 0.58 0.83 1.08 1.12 0.86 0.64 0.55 0.43 0.34
0.13 0.15 0.17 0.17 0.16 0.14 0.10 0.06 0.05 0.04 0.02 0.02 0.01 0.01 0.01 0.02 0.03 0.05 0.10 0.16 0.22 0.26 0.27 0.28 0.27 0.24 0.26 0.33 0.38 0.41 0.41 0.38 0.36 0.36 0.38 0.47 0.69 0.97 1.17 1.15 0.98 0.73 0.45 0.28
0.13 0.14 0.15 0.12 0.11 0.10 0.08 0.05 0.04 0.03 0.02 0.01 0.01 0.01 0.01 0.03 0.06 0.11 0.17 0.28 0.37 0.38 0.34 0.32 0.30 0.28 0.30 0.36 0.37 0.36 0.37 0.33 0.30 0.31 0.32 0.37 0.56 0.83 1.05 1.13 1.08 0.96 0.68 0.37
0.13 0.14 0.11 0.08 0.07 0.06 0.05 0.04 0.03 0.02 0.02 0.01 0.02 0.02 0.03 0.06 0.10 0.15 0.23 0.38 0.55 0.56 0.47 0.40 0.35 0.33 0.34 0.37 0.36 0.32 0.31 0.25 0.20 0.22 0.25 0.30 0.42 0.66 0.92 1.07 1.03 0.98 0.83 0.48
0.14 0.11 0.09 0.09 0.08 0.07 0.05 0.03 0.02 0.03 0.03 0.03 0.04 0.05 0.07 0.11 0.17 0.24 0.35 0.45 0.52 0.50 0.46 0.44 0.39 0.35 0.35 0.36 0.35 0.30 0.27 0.22 0.15 0.15 0.24 0.30 0.37 0.55 0.81 0.99 0.96 0.88 0.76 0.45
0.10 0.08 0.07 0.06 0.05 0.06 0.05 0.04 0.04 0.04 0.04 0.05 0.07 0.07 0.10 0.18 0.30 0.46 0.58 0.61 0.56 0.43 0.38 0.39 0.36 0.32 0.30 0.28 0.26 0.25 0.23 0.23 0.21 0.22 0.28 0.32 0.36 0.54 0.76 0.91 0.87 0.82 0.73 0.50
0.07 0.07 0.07 0.06 0.05 0.04 0.03 0.03 0.02 0.02 0.04 0.08 0.10 0.09 0.11 0.18 0.32 0.51 0.62 0.74 0.78 0.63 0.44 0.32 0.29 0.25 0.23 0.19 0.20 0.20 0.20 0.22 0.22 0.24 0.29 0.28 0.38 0.56 0.71 0.78 0.77 0.73 0.62 0.50
0.05 0.05 0.05 0.05 0.03 0.03 0.02 0.02 0.02 0.02 0.06 0.10 0.10 0.07 0.09 0.16 0.31 0.51 0.64 0.74 0.80 0.73 0.53 0.36 0.25 0.19 0.15 0.12 0.13 0.17 0.20 0.24 0.26 0.28 0.30 0.38 0.47 0.60 0.66 0.65 0.63 0.61 0.57 0.55
0.03 0.04 0.04 0.03 0.02 0.01 0.01 0.01 0.01 0.03 0.07 0.09 0.08 0.06 0.10 0.16 0.28 0.48 0.77 0.94 0.82 0.68 0.53 0.40 0.28 0.18 0.13 0.12 0.11 0.14 0.18 0.21 0.27 0.33 0.37 0.43 0.53 0.62 0.63 0.60 0.54 0.50 0.51 0.54
0.03 0.03 0.02 0.01 0.00 0.00 0.00 0.00 0.01 0.03 0.05 0.06 0.06 0.07 0.11 0.18 0.29 0.40 0.59 0.88 0.95 0.86 0.61 0.42 0.30 0.19 0.14 0.12 0.12 0.14 0.16 0.19 0.24 0.30 0.33 0.37 0.47 0.56 0.54 0.48 0.43 0.43 0.47 0.53
0.02 0.02 0.01 0.00 0.00 0.00 0.00 0.00 0.00 0.02 0.03 0.04 0.05 0.07 0.12 0.20 0.33 0.56 0.68 0.68 0.78 0.88 0.66 0.45 0.36 0.26 0.16 0.13 0.15 0.17 0.18 0.22 0.29 0.31 0.29 0.32 0.35 0.41 0.43 0.40 0.42 0.43 0.47 0.49
0.02 0.01 0.01 0.00 0.00 0.00 0.00 0.00 0.00 0.01 0.01 0.01 0.02 0.04 0.08 0.17 0.25 0.40 0.59 0.69 0.72 0.78 0.61 0.45 0.35 0.26 0.20 0.18 0.22 0.26 0.32 0.39 0.40 0.35 0.29 0.30 0.32 0.35 0.40 0.40 0.37 0.40 0.43 0.45
0.01 0.01 0.01 0.01 0.01 0.01 0.01 0.01 0.01 0.01 0.01 0.02 0.02 0.03 0.06 0.12 0.25 0.39 0.53 0.63 0.75 0.80 0.68 0.53 0.41 0.35 0.30 0.31 0.35 0.44 0.51 0.45 0.38 0.33 0.29 0.29 0.32 0.37 0.39 0.41 0.43 0.42 0.40 0.40
0.02 0.01 0.01 0.01 0.02 0.02 0.02 0.02 0.02 0.03 0.03 0.03 0.05 0.07 0.09 0.14 0.21 0.33 0.46 0.53 0.62 0.72 0.67 0.51 0.36 0.32 0.33 0.38 0.43 0.47 0.46 0.41 0.35 0.33 0.32 0.33 0.36 0.39 0.39 0.42 0.45 0.41 0.39 0.39
0.02 0.02 0.02 0.03 0.03 0.03 0.04 0.05 0.06 0.06 0.08 0.10 0.14 0.18 0.20 0.22 0.26 0.33 0.40 0.45 0.50 0.51 0.48 0.38 0.28 0.28 0.28 0.29 0.33 0.36 0.37 0.38 0.37 0.36 0.37 0.38 0.40 0.41 0.39 0.37 0.36 0.35 0.33 0.32